Wetterdaten: Samstag, 05.03.2022
Datum Zeit Temp. Aussen Temp. o. S. Temp +5cm Feuchte Auss Luftdruck Regen Sonnenschein Regendauer Solar Windben Empfang
05.03.2022 00:00 0,5 C -0,6 C -3,9 C 86 % 1021,0 hPa 0,0 l/m 0 min 0 min 0 W/m 6,4 km/h (2 Bft) 100,00 %
05.03.2022 00:02 0,5 C -0,6 C -3,9 C 86 % 1021,0 hPa 0,0 l/m 0 min 0 min 0 W/m 3,2 km/h (1 Bft) 9,09 %
05.03.2022 00:04 0,4 C -0,6 C -3,9 C 86 % 1021,0 hPa 0,0 l/m 0 min 0 min 0 W/m 3,2 km/h (1 Bft) 100,00 %
05.03.2022 00:06 0,4 C -0,6 C -3,9 C 86 % 1021,0 hPa 0,0 l/m 0 min 0 min 0 W/m 3,2 km/h (1 Bft) 100,00 %
05.03.2022 00:08 0,4 C -0,6 C -3,9 C 87 % 1021,0 hPa 0,0 l/m 0 min 0 min 0 W/m 6,4 km/h (2 Bft) 100,00 %
05.03.2022 00:10 0,4 C -0,6 C -3,9 C 87 % 1021,0 hPa 0,0 l/m 0 min 0 min 0 W/m 3,2 km/h (1 Bft) 95,74 %
05.03.2022 00:12 0,3 C -1,1 C -3,9 C 87 % 1021,0 hPa 0,0 l/m 0 min 0 min 0 W/m 3,2 km/h (1 Bft) 97,83 %
05.03.2022 00:14 0,3 C -1,1 C -3,9 C 87 % 1021,0 hPa 0,0 l/m 0 min 0 min 0 W/m 6,4 km/h (2 Bft) 97,87 %
05.03.2022 00:16 0,3 C -1,1 C -3,9 C 87 % 1021,0 hPa 0,0 l/m 0 min 0 min 0 W/m 3,2 km/h (1 Bft) 97,87 %
05.03.2022 00:18 0,3 C -1,1 C -3,9 C 87 % 1021,0 hPa 0,0 l/m 0 min 0 min 0 W/m 3,2 km/h (1 Bft) 97,87 %
05.03.2022 00:20 0,3 C -1,1 C -3,9 C 87 % 1021,0 hPa 0,0 l/m 0 min 0 min 0 W/m 3,2 km/h (1 Bft) 95,74 %
05.03.2022 00:22 0,3 C -1,1 C -3,9 C 87 % 1021,0 hPa 0,0 l/m 0 min 0 min 0 W/m 6,4 km/h (2 Bft) 97,83 %
05.03.2022 00:24 0,3 C -1,1 C -3,9 C 87 % 1021,0 hPa 0,0 l/m 0 min 0 min 0 W/m 3,2 km/h (1 Bft) 97,87 %
05.03.2022 00:26 0,2 C -1,1 C -4,4 C 87 % 1021,0 hPa 0,0 l/m 0 min 0 min 0 W/m 3,2 km/h (1 Bft) 97,87 %
05.03.2022 00:28 0,2 C -1,1 C -4,4 C 87 % 1021,0 hPa 0,0 l/m 0 min 0 min 0 W/m 3,2 km/h (1 Bft) 97,87 %
05.03.2022 00:30 0,2 C -1,1 C -4,4 C 88 % 1021,0 hPa 0,0 l/m 0 min 0 min 0 W/m 3,2 km/h (1 Bft) 97,87 %
05.03.2022 00:32 0,2 C -1,1 C -4,4 C 88 % 1021,0 hPa 0,0 l/m 0 min 0 min 0 W/m 3,2 km/h (1 Bft) 97,87 %
05.03.2022 00:34 0,2 C -1,1 C -4,4 C 88 % 1021,0 hPa 0,0 l/m 0 min 0 min 0 W/m 3,2 km/h (1 Bft) 97,83 %
05.03.2022 00:36 0,1 C -1,1 C -4,4 C 88 % 1021,0 hPa 0,0 l/m 0 min 0 min 0 W/m 3,2 km/h (1 Bft) 97,87 %
05.03.2022 00:38 0,1 C -1,1 C -4,4 C 88 % 1021,0 hPa 0,0 l/m 0 min 0 min 0 W/m 3,2 km/h (1 Bft) 100,00 %
05.03.2022 00:40 0,1 C -1,1 C -4,4 C 88 % 1021,0 hPa 0,0 l/m 0 min 0 min 0 W/m 3,2 km/h (1 Bft) 100,00 %
05.03.2022 00:42 0,1 C -1,1 C -4,4 C 88 % 1021,0 hPa 0,0 l/m 0 min 0 min 0 W/m 3,2 km/h (1 Bft) 100,00 %
05.03.2022 00:44 0,0 C -1,1 C -4,4 C 88 % 1021,0 hPa 0,0 l/m 0 min 0 min 0 W/m 3,2 km/h (1 Bft) 100,00 %
05.03.2022 00:46 -0,1 C -1,1 C -4,4 C 88 % 1021,0 hPa 0,0 l/m 0 min 0 min 0 W/m 3,2 km/h (1 Bft) 97,83 %
05.03.2022 00:48 -0,1 C -1,1 C -4,4 C 88 % 1021,0 hPa 0,0 l/m 0 min 0 min 0 W/m 3,2 km/h (1 Bft) 100,00 %
05.03.2022 00:50 -0,1 C -1,1 C -4,4 C 88 % 1021,0 hPa 0,0 l/m 0 min 0 min 0 W/m 3,2 km/h (1 Bft) 100,00 %
05.03.2022 00:52 -0,1 C -1,1 C -4,4 C 88 % 1021,0 hPa 0,0 l/m 0 min 0 min 0 W/m 3,2 km/h (1 Bft) 97,87 %
05.03.2022 00:54 -0,1 C -1,1 C -4,4 C 88 % 1021,1 hPa 0,0 l/m 0 min 0 min 0 W/m 3,2 km/h (1 Bft) 97,87 %
05.03.2022 00:56 -0,2 C -1,1 C -4,4 C 88 % 1021,0 hPa 0,0 l/m 0 min 0 min 0 W/m 3,2 km/h (1 Bft) 95,74 %
05.03.2022 00:58 -0,2 C -1,7 C -4,4 C 88 % 1021,0 hPa 0,0 l/m 0 min 0 min 0 W/m 3,2 km/h (1 Bft) 95,74 %
05.03.2022 01:00 -0,2 C -1,7 C -4,4 C 88 % 1021,0 hPa 0,0 l/m 0 min 0 min 0 W/m 3,2 km/h (1 Bft) 95,65 %
05.03.2022 01:02 -0,2 C -1,7 C -4,4 C 88 % 1021,0 hPa 0,0 l/m 0 min 0 min 0 W/m 3,2 km/h (1 Bft) 95,74 %
05.03.2022 01:04 -0,2 C -1,7 C -4,4 C 88 % 1020,9 hPa 0,0 l/m 0 min 0 min 0 W/m 3,2 km/h (1 Bft) 91,49 %
05.03.2022 01:06 -0,3 C -1,7 C -4,4 C 88 % 1021,0 hPa 0,0 l/m 0 min 0 min 0 W/m 3,2 km/h (1 Bft) 95,74 %
05.03.2022 01:08 -0,3 C -1,7 C -4,4 C 88 % 1021,0 hPa 0,0 l/m 0 min 0 min 0 W/m 3,2 km/h (1 Bft) 95,74 %
05.03.2022 01:10 -0,3 C -1,7 C -4,4 C 88 % 1021,0 hPa 0,0 l/m 0 min 0 min 0 W/m 3,2 km/h (1 Bft) 95,74 %
05.03.2022 01:12 -0,3 C -1,7 C -4,4 C 88 % 1021,1 hPa 0,0 l/m 0 min 0 min 0 W/m 3,2 km/h (1 Bft) 95,65 %
05.03.2022 01:14 -0,3 C -1,7 C -4,4 C 88 % 1021,1 hPa 0,0 l/m 0 min 0 min 0 W/m 3,2 km/h (1 Bft) 95,74 %
05.03.2022 01:16 -0,4 C -1,7 C -4,4 C 88 % 1021,0 hPa 0,0 l/m 0 min 0 min 0 W/m 3,2 km/h (1 Bft) 95,74 %
05.03.2022 01:18 -0,4 C -1,7 C -4,4 C 88 % 1021,0 hPa 0,0 l/m 0 min 0 min 0 W/m 3,2 km/h (1 Bft) 93,62 %
05.03.2022 01:20 -0,4 C -1,7 C -4,4 C 88 % 1021,0 hPa 0,0 l/m 0 min 0 min 0 W/m 3,2 km/h (1 Bft) 44,44 %
05.03.2022 01:22 -0,4 C -1,7 C -5,0 C 88 % 1021,0 hPa 0,0 l/m 0 min 0 min 0 W/m 3,2 km/h (1 Bft) 97,83 %
05.03.2022 01:24 -0,5 C -1,7 C -5,0 C 88 % 1021,0 hPa 0,0 l/m 0 min 0 min 0 W/m 3,2 km/h (1 Bft) 97,87 %
05.03.2022 01:26 -0,5 C -1,7 C -5,0 C 88 % 1021,0 hPa 0,0 l/m 0 min 0 min 0 W/m 3,2 km/h (1 Bft) 97,87 %
05.03.2022 01:28 -0,5 C -1,7 C -5,0 C 88 % 1021,0 hPa 0,0 l/m 0 min 0 min 0 W/m 3,2 km/h (1 Bft) 95,74 %
05.03.2022 01:30 -0,6 C -1,7 C -5,0 C 88 % 1021,0 hPa 0,0 l/m 0 min 0 min 0 W/m 3,2 km/h (1 Bft) 95,74 %
05.03.2022 01:32 -0,6 C -1,7 C -5,0 C 88 % 1021,1 hPa 0,0 l/m 0 min 0 min 0 W/m 0,0 km/h (0 Bft) 95,74 %
05.03.2022 01:34 -0,6 C -1,7 C -5,0 C 89 % 1021,0 hPa 0,0 l/m 0 min 0 min 0 W/m 3,2 km/h (1 Bft) 97,83 %
05.03.2022 01:36 -0,6 C -1,7 C -5,0 C 89 % 1021,0 hPa 0,0 l/m 0 min 0 min 0 W/m 3,2 km/h (1 Bft) 95,74 %
05.03.2022 01:38 -0,6 C -1,7 C -5,0 C 89 % 1021,0 hPa 0,0 l/m 0 min 0 min 0 W/m 3,2 km/h (1 Bft) 97,87 %
05.03.2022 01:40 -0,7 C -1,7 C -5,0 C 89 % 1021,1 hPa 0,0 l/m 0 min 0 min 0 W/m 6,4 km/h (2 Bft) 97,87 %
05.03.2022 01:42 -0,7 C -1,7 C -4,4 C 89 % 1021,0 hPa 0,0 l/m 0 min 0 min 0 W/m 3,2 km/h (1 Bft) 97,87 %
05.03.2022 01:44 -0,6 C -1,1 C -4,4 C 89 % 1021,0 hPa 0,0 l/m 0 min 0 min 0 W/m 6,4 km/h (2 Bft) 97,87 %
05.03.2022 01:46 -0,6 C -1,1 C -4,4 C 89 % 1021,0 hPa 0,0 l/m 0 min 0 min 0 W/m 6,4 km/h (2 Bft) 95,65 %
05.03.2022 01:48 -0,6 C -1,1 C -4,4 C 89 % 1021,0 hPa 0,0 l/m 0 min 0 min 0 W/m 3,2 km/h (1 Bft) 93,62 %
05.03.2022 01:50 -0,6 C -1,1 C -3,9 C 89 % 1021,0 hPa 0,0 l/m 0 min 0 min 0 W/m 6,4 km/h (2 Bft) 93,62 %
05.03.2022 01:52 -0,4 C -0,6 C -3,9 C 89 % 1021,0 hPa 0,0 l/m 0 min 0 min 0 W/m 6,4 km/h (2 Bft) 91,49 %
05.03.2022 01:54 -0,4 C -0,6 C -3,9 C 89 % 1021,0 hPa 0,0 l/m 0 min 0 min 0 W/m 6,4 km/h (2 Bft) 95,74 %
05.03.2022 01:56 -0,3 C -0,6 C -3,9 C 89 % 1021,0 hPa 0,0 l/m 0 min 0 min 0 W/m 6,4 km/h (2 Bft) 93,48 %
05.03.2022 01:58 -0,2 C 0,0 C -3,3 C 89 % 1021,0 hPa 0,0 l/m 0 min 0 min 0 W/m 16,1 km/h (3 Bft) 41,67 %
05.03.2022 02:00 -0,2 C 0,0 C -3,3 C 88 % 1021,0 hPa 0,0 l/m 0 min 0 min 0 W/m 12,9 km/h (3 Bft) 93,62 %
05.03.2022 02:02 -0,1 C 0,0 C -3,3 C 88 % 1021,0 hPa 0,0 l/m 0 min 0 min 0 W/m 12,9 km/h (3 Bft) 96,00 %
05.03.2022 02:04 0,0 C 0,0 C -3,3 C 88 % 1021,0 hPa 0,0 l/m 0 min 0 min 0 W/m 9,7 km/h (2 Bft) 93,62 %
05.03.2022 02:06 0,1 C 0,0 C -3,3 C 88 % 1020,9 hPa 0,0 l/m 0 min 0 min 0 W/m 12,9 km/h (3 Bft) 95,74 %
05.03.2022 02:08 0,1 C 0,0 C -3,3 C 88 % 1021,0 hPa 0,0 l/m 0 min 0 min 0 W/m 12,9 km/h (3 Bft) 97,83 %
05.03.2022 02:10 0,2 C 0,0 C -3,3 C 87 % 1021,0 hPa 0,0 l/m 0 min 0 min 0 W/m 12,9 km/h (3 Bft) 97,87 %
05.03.2022 02:12 0,3 C 0,0 C -3,3 C 87 % 1021,0 hPa 0,0 l/m 0 min 0 min 0 W/m 12,9 km/h (3 Bft) 100,00 %
05.03.2022 02:14 0,3 C 0,0 C -3,3 C 87 % 1021,0 hPa 0,0 l/m 0 min 0 min 0 W/m 12,9 km/h (3 Bft) 100,00 %
05.03.2022 02:16 0,3 C 0,0 C -3,3 C 86 % 1020,9 hPa 0,0 l/m 0 min 0 min 0 W/m 16,1 km/h (3 Bft) 100,00 %
05.03.2022 02:18 0,4 C 0,0 C -3,3 C 86 % 1020,9 hPa 0,0 l/m 0 min 0 min 0 W/m 6,4 km/h (2 Bft) 97,83 %
05.03.2022 02:20 0,4 C 0,0 C -3,3 C 86 % 1020,8 hPa 0,0 l/m 0 min 0 min 0 W/m 6,4 km/h (2 Bft) 97,87 %
05.03.2022 02:22 0,4 C 0,0 C -3,3 C 85 % 1020,9 hPa 0,0 l/m 0 min 0 min 0 W/m 6,4 km/h (2 Bft) 100,00 %
05.03.2022 02:24 0,5 C 0,0 C -3,3 C 85 % 1020,9 hPa 0,0 l/m 0 min 0 min 0 W/m 6,4 km/h (2 Bft) 100,00 %
05.03.2022 02:26 0,5 C 0,0 C -3,3 C 85 % 1020,9 hPa 0,0 l/m 0 min 0 min 0 W/m 6,4 km/h (2 Bft) 97,87 %
05.03.2022 02:28 0,6 C 0,0 C -3,3 C 85 % 1020,9 hPa 0,0 l/m 0 min 0 min 0 W/m 6,4 km/h (2 Bft) 100,00 %
05.03.2022 02:30 0,6 C 0,0 C -3,3 C 84 % 1020,9 hPa 0,0 l/m 0 min 0 min 0 W/m 6,4 km/h (2 Bft) 100,00 %
05.03.2022 02:32 0,6 C 0,0 C -3,3 C 84 % 1020,8 hPa 0,0 l/m 0 min 0 min 0 W/m 6,4 km/h (2 Bft) 97,87 %
05.03.2022 02:34 0,6 C 0,0 C -3,3 C 84 % 1020,8 hPa 0,0 l/m 0 min 0 min 0 W/m 6,4 km/h (2 Bft) 100,00 %
05.03.2022 02:36 0,6 C 0,0 C -3,3 C 84 % 1020,8 hPa 0,0 l/m 0 min 0 min 0 W/m 6,4 km/h (2 Bft) 95,74 %
05.03.2022 02:38 0,6 C 0,0 C -3,3 C 84 % 1020,8 hPa 0,0 l/m 0 min 0 min 0 W/m 12,9 km/h (3 Bft) 97,87 %
05.03.2022 02:40 0,6 C 0,0 C -3,3 C 84 % 1020,8 hPa 0,0 l/m 0 min 0 min 0 W/m 6,4 km/h (2 Bft) 97,87 %
05.03.2022 02:42 0,6 C 0,0 C -3,3 C 84 % 1020,8 hPa 0,0 l/m 0 min 0 min 0 W/m 12,9 km/h (3 Bft) 97,83 %
05.03.2022 02:44 0,6 C 0,0 C -3,3 C 83 % 1020,8 hPa 0,0 l/m 0 min 0 min 0 W/m 6,4 km/h (2 Bft) 97,87 %
05.03.2022 02:46 0,6 C 0,0 C -3,3 C 83 % 1020,8 hPa 0,0 l/m 0 min 0 min 0 W/m 12,9 km/h (3 Bft) 97,87 %
05.03.2022 02:48 0,6 C -0,6 C -3,3 C 83 % 1020,8 hPa 0,0 l/m 0 min 0 min 0 W/m 6,4 km/h (2 Bft) 95,74 %
05.03.2022 02:50 0,6 C 0,0 C -3,3 C 83 % 1020,8 hPa 0,0 l/m 0 min 0 min 0 W/m 16,1 km/h (3 Bft) 95,74 %
05.03.2022 02:52 0,6 C 0,0 C -3,3 C 83 % 1020,8 hPa 0,0 l/m 0 min 0 min 0 W/m 12,9 km/h (3 Bft) 97,83 %
05.03.2022 02:54 0,6 C -0,6 C -3,3 C 83 % 1020,8 hPa 0,0 l/m 0 min 0 min 0 W/m 12,9 km/h (3 Bft) 97,87 %
05.03.2022 02:56 0,5 C 0,0 C -3,3 C 83 % 1020,8 hPa 0,0 l/m 0 min 0 min 0 W/m 6,4 km/h (2 Bft) 95,74 %
05.03.2022 02:58 0,6 C 0,0 C -3,3 C 83 % 1020,7 hPa 0,0 l/m 0 min 0 min 0 W/m 16,1 km/h (3 Bft) 98,00 %
05.03.2022 03:00 0,5 C 0,0 C -3,3 C 83 % 1020,8 hPa 0,0 l/m 0 min 0 min 0 W/m 6,4 km/h (2 Bft) 97,87 %
05.03.2022 03:02 0,5 C 0,0 C -3,3 C 83 % 1020,7 hPa 0,0 l/m 0 min 0 min 0 W/m 12,9 km/h (3 Bft) 97,87 %
05.03.2022 03:04 0,5 C -0,6 C -3,9 C 83 % 1020,8 hPa 0,0 l/m 0 min 0 min 0 W/m 12,9 km/h (3 Bft) 95,74 %
05.03.2022 03:06 0,5 C -0,6 C -3,9 C 83 % 1020,8 hPa 0,0 l/m 0 min 0 min 0 W/m 12,9 km/h (3 Bft) 97,83 %
05.03.2022 03:08 0,5 C -0,6 C -3,9 C 83 % 1020,8 hPa 0,0 l/m 0 min 0 min 0 W/m 12,9 km/h (3 Bft) 97,87 %
05.03.2022 03:10 0,5 C -0,6 C -3,9 C 83 % 1020,7 hPa 0,0 l/m 0 min 0 min 0 W/m 12,9 km/h (3 Bft) 97,87 %
05.03.2022 03:12 0,5 C -0,6 C -3,3 C 83 % 1020,7 hPa 0,0 l/m 0 min 0 min 0 W/m 12,9 km/h (3 Bft) 97,87 %
05.03.2022 03:14 0,5 C -0,6 C -3,3 C 83 % 1020,7 hPa 0,0 l/m 0 min 0 min 0 W/m 9,7 km/h (2 Bft) 100,00 %
05.03.2022 03:16 0,5 C -0,6 C -3,3 C 83 % 1020,8 hPa 0,0 l/m 0 min 0 min 0 W/m 3,2 km/h (1 Bft) 100,00 %
05.03.2022 03:18 0,5 C -0,6 C -3,9 C 83 % 1020,7 hPa 0,0 l/m 0 min 0 min 0 W/m 6,4 km/h (2 Bft) 97,83 %
05.03.2022 03:20 0,4 C -0,6 C -3,9 C 83 % 1020,7 hPa 0,0 l/m 0 min 0 min 0 W/m 12,9 km/h (3 Bft) 97,87 %
05.03.2022 03:22 0,4 C -0,6 C -3,9 C 83 % 1020,7 hPa 0,0 l/m 0 min 0 min 0 W/m 12,9 km/h (3 Bft) 97,87 %
05.03.2022 03:24 0,4 C -0,6 C -3,9 C 83 % 1020,7 hPa 0,0 l/m 0 min 0 min 0 W/m 12,9 km/h (3 Bft) 100,00 %
05.03.2022 03:26 0,4 C -0,6 C -3,9 C 83 % 1020,7 hPa 0,0 l/m 0 min 0 min 0 W/m 6,4 km/h (2 Bft) 100,00 %
05.03.2022 03:28 0,4 C -0,6 C -3,9 C 83 % 1020,7 hPa 0,0 l/m 0 min 0 min 0 W/m 6,4 km/h (2 Bft) 97,87 %
05.03.2022 03:30 0,4 C -0,6 C -3,9 C 83 % 1020,7 hPa 0,0 l/m 0 min 0 min 0 W/m 12,9 km/h (3 Bft) 97,83 %
05.03.2022 03:32 0,4 C -0,6 C -3,9 C 83 % 1020,7 hPa 0,0 l/m 0 min 0 min 0 W/m 12,9 km/h (3 Bft) 97,87 %
05.03.2022 03:34 0,4 C -0,6 C -3,9 C 83 % 1020,6 hPa 0,0 l/m 0 min 0 min 0 W/m 9,7 km/h (2 Bft) 97,87 %
05.03.2022 03:36 0,3 C -0,6 C -3,9 C 83 % 1020,6 hPa 0,0 l/m 0 min 0 min 0 W/m 6,4 km/h (2 Bft) 97,87 %
05.03.2022 03:38 0,3 C -0,6 C -3,9 C 84 % 1020,6 hPa 0,0 l/m 0 min 0 min 0 W/m 12,9 km/h (3 Bft) 97,87 %
05.03.2022 03:40 0,3 C -0,6 C -3,9 C 84 % 1020,6 hPa 0,0 l/m 0 min 0 min 0 W/m 12,9 km/h (3 Bft) 97,83 %
05.03.2022 03:42 0,3 C -0,6 C -3,9 C 83 % 1020,6 hPa 0,0 l/m 0 min 0 min 0 W/m 9,7 km/h (2 Bft) 95,74 %
05.03.2022 03:44 0,3 C -0,6 C -3,9 C 83 % 1020,6 hPa 0,0 l/m 0 min 0 min 0 W/m 6,4 km/h (2 Bft) 97,87 %
05.03.2022 03:46 0,3 C -0,6 C -3,9 C 83 % 1020,5 hPa 0,0 l/m 0 min 0 min 0 W/m 16,1 km/h (3 Bft) 97,87 %
05.03.2022 03:48 0,3 C -0,6 C -3,9 C 83 % 1020,6 hPa 0,0 l/m 0 min 0 min 0 W/m 6,4 km/h (2 Bft) 97,87 %
05.03.2022 03:50 0,3 C -0,6 C -3,9 C 84 % 1020,6 hPa 0,0 l/m 0 min 0 min 0 W/m 6,4 km/h (2 Bft) 97,87 %
05.03.2022 03:52 0,2 C -0,6 C -3,9 C 84 % 1020,6 hPa 0,0 l/m 0 min 0 min 0 W/m 12,9 km/h (3 Bft) 97,83 %
05.03.2022 03:54 0,2 C -0,6 C -3,9 C 84 % 1020,6 hPa 0,0 l/m 0 min 0 min 0 W/m 6,4 km/h (2 Bft) 97,87 %
05.03.2022 03:56 0,2 C -0,6 C -3,9 C 84 % 1020,5 hPa 0,0 l/m 0 min 0 min 0 W/m 6,4 km/h (2 Bft) 97,87 %
05.03.2022 03:58 0,2 C -1,1 C -3,9 C 84 % 1020,5 hPa 0,0 l/m 0 min 0 min 0 W/m 6,4 km/h (2 Bft) 100,00 %
05.03.2022 04:00 0,1 C -1,1 C -3,9 C 84 % 1020,5 hPa 0,0 l/m 0 min 0 min 0 W/m 12,9 km/h (3 Bft) 97,87 %
05.03.2022 04:02 0,1 C -1,1 C -3,9 C 84 % 1020,5 hPa 0,0 l/m 0 min 0 min 0 W/m 3,2 km/h (1 Bft) 100,00 %
05.03.2022 04:04 0,1 C -1,1 C -3,9 C 84 % 1020,6 hPa 0,0 l/m 0 min 0 min 0 W/m 3,2 km/h (1 Bft) 100,00 %
05.03.2022 04:06 0,1 C -1,1 C -3,9 C 84 % 1020,5 hPa 0,0 l/m 0 min 0 min 0 W/m 6,4 km/h (2 Bft) 100,00 %
05.03.2022 04:08 0,1 C -1,1 C -3,9 C 84 % 1020,5 hPa 0,0 l/m 0 min 0 min 0 W/m 9,7 km/h (2 Bft) 100,00 %
05.03.2022 04:10 0,1 C -1,1 C -3,9 C 84 % 1020,5 hPa 0,0 l/m 0 min 0 min 0 W/m 6,4 km/h (2 Bft) 100,00 %
05.03.2022 04:12 0,1 C -1,1 C -3,9 C 84 % 1020,5 hPa 0,0 l/m 0 min 0 min 0 W/m 3,2 km/h (1 Bft) 100,00 %
05.03.2022 04:14 0,0 C -1,1 C -3,9 C 84 % 1020,5 hPa 0,0 l/m 0 min 0 min 0 W/m 6,4 km/h (2 Bft) 100,00 %
05.03.2022 04:16 0,0 C -1,1 C -4,4 C 84 % 1020,4 hPa 0,0 l/m 0 min 0 min 0 W/m 6,4 km/h (2 Bft) 97,87 %
05.03.2022 04:18 -0,1 C -1,1 C -4,4 C 84 % 1020,5 hPa 0,0 l/m 0 min 0 min 0 W/m 12,9 km/h (3 Bft) 97,87 %
05.03.2022 04:20 -0,1 C -1,1 C -4,4 C 84 % 1020,4 hPa 0,0 l/m 0 min 0 min 0 W/m 3,2 km/h (1 Bft) 97,87 %
05.03.2022 04:22 -0,1 C -1,1 C -4,4 C 85 % 1020,4 hPa 0,0 l/m 0 min 0 min 0 W/m 6,4 km/h (2 Bft) 100,00 %
05.03.2022 04:24 -0,1 C -1,1 C -4,4 C 85 % 1020,5 hPa 0,0 l/m 0 min 0 min 0 W/m 6,4 km/h (2 Bft) 100,00 %
05.03.2022 04:26 -0,1 C -1,1 C -4,4 C 85 % 1020,5 hPa 0,0 l/m 0 min 0 min 0 W/m 3,2 km/h (1 Bft) 97,83 %
05.03.2022 04:28 -0,2 C -1,1 C -4,4 C 84 % 1020,5 hPa 0,0 l/m 0 min 0 min 0 W/m 6,4 km/h (2 Bft) 95,74 %
05.03.2022 04:30 -0,2 C -1,1 C -4,4 C 85 % 1020,5 hPa 0,0 l/m 0 min 0 min 0 W/m 6,4 km/h (2 Bft) 100,00 %
05.03.2022 04:32 -0,2 C -1,1 C -4,4 C 85 % 1020,5 hPa 0,0 l/m 0 min 0 min 0 W/m 6,4 km/h (2 Bft) 93,62 %
05.03.2022 04:34 -0,2 C -1,1 C -4,4 C 85 % 1020,5 hPa 0,0 l/m 0 min 0 min 0 W/m 6,4 km/h (2 Bft) 95,74 %
05.03.2022 04:36 -0,2 C -1,1 C -4,4 C 85 % 1020,5 hPa 0,0 l/m 0 min 0 min 0 W/m 6,4 km/h (2 Bft) 95,65 %
05.03.2022 04:38 -0,2 C -1,1 C -4,4 C 85 % 1020,5 hPa 0,0 l/m 0 min 0 min 0 W/m 6,4 km/h (2 Bft) 97,87 %
05.03.2022 04:40 -0,2 C -1,1 C -4,4 C 85 % 1020,5 hPa 0,0 l/m 0 min 0 min 0 W/m 3,2 km/h (1 Bft) 95,74 %
05.03.2022 04:42 -0,3 C -1,1 C -4,4 C 85 % 1020,5 hPa 0,0 l/m 0 min 0 min 0 W/m 3,2 km/h (1 Bft) 95,74 %
05.03.2022 04:44 -0,3 C -1,1 C -4,4 C 85 % 1020,5 hPa 0,0 l/m 0 min 0 min 0 W/m 6,4 km/h (2 Bft) 95,74 %
05.03.2022 04:46 -0,3 C -1,1 C -4,4 C 85 % 1020,5 hPa 0,0 l/m 0 min 0 min 0 W/m 6,4 km/h (2 Bft) 93,62 %
05.03.2022 04:48 -0,3 C -1,1 C -4,4 C 85 % 1020,5 hPa 0,0 l/m 0 min 0 min 0 W/m 9,7 km/h (2 Bft) 95,65 %
05.03.2022 04:50 -0,3 C -1,1 C -4,4 C 85 % 1020,5 hPa 0,0 l/m 0 min 0 min 0 W/m 6,4 km/h (2 Bft) 95,74 %
05.03.2022 04:52 -0,3 C -1,1 C -4,4 C 85 % 1020,5 hPa 0,0 l/m 0 min 0 min 0 W/m 6,4 km/h (2 Bft) 97,87 %
05.03.2022 04:54 -0,3 C -1,1 C -4,4 C 85 % 1020,5 hPa 0,0 l/m 0 min 0 min 0 W/m 6,4 km/h (2 Bft) 95,74 %
05.03.2022 04:56 -0,3 C -1,1 C -4,4 C 85 % 1020,5 hPa 0,0 l/m 0 min 0 min 0 W/m 6,4 km/h (2 Bft) 95,74 %
05.03.2022 04:58 -0,3 C -1,1 C -4,4 C 86 % 1020,6 hPa 0,0 l/m 0 min 0 min 0 W/m 12,9 km/h (3 Bft) 96,00 %
05.03.2022 05:00 -0,3 C -1,1 C -4,4 C 86 % 1020,6 hPa 0,0 l/m 0 min 0 min 0 W/m 6,4 km/h (2 Bft) 95,65 %
05.03.2022 05:02 -0,3 C -1,1 C -4,4 C 86 % 1020,5 hPa 0,0 l/m 0 min 0 min 0 W/m 12,9 km/h (3 Bft) 89,36 %
05.03.2022 05:04 -0,3 C -1,1 C -4,4 C 86 % 1020,6 hPa 0,0 l/m 0 min 0 min 0 W/m 12,9 km/h (3 Bft) 95,74 %
05.03.2022 05:06 -0,3 C -1,1 C -4,4 C 86 % 1020,6 hPa 0,0 l/m 0 min 0 min 0 W/m 12,9 km/h (3 Bft) 95,74 %
05.03.2022 05:08 -0,3 C -1,1 C -4,4 C 86 % 1020,6 hPa 0,0 l/m 0 min 0 min 0 W/m 6,4 km/h (2 Bft) 95,74 %
05.03.2022 05:10 -0,3 C -1,1 C -4,4 C 86 % 1020,6 hPa 0,0 l/m 0 min 0 min 0 W/m 6,4 km/h (2 Bft) 91,49 %
05.03.2022 05:12 -0,3 C -1,1 C -4,4 C 86 % 1020,6 hPa 0,0 l/m 0 min 0 min 0 W/m 6,4 km/h (2 Bft) 93,48 %
05.03.2022 05:14 -0,3 C -1,1 C -4,4 C 86 % 1020,6 hPa 0,0 l/m 0 min 0 min 0 W/m 6,4 km/h (2 Bft) 95,74 %
05.03.2022 05:16 -0,3 C -1,1 C -4,4 C 86 % 1020,6 hPa 0,0 l/m 0 min 0 min 0 W/m 12,9 km/h (3 Bft) 93,62 %
05.03.2022 05:18 -0,3 C -1,1 C -4,4 C 86 % 1020,6 hPa 0,0 l/m 0 min 0 min 0 W/m 6,4 km/h (2 Bft) 95,74 %
05.03.2022 05:20 -0,3 C -1,1 C -4,4 C 86 % 1020,6 hPa 0,0 l/m 0 min 0 min 0 W/m 6,4 km/h (2 Bft) 93,62 %
05.03.2022 05:22 -0,3 C -1,1 C -4,4 C 86 % 1020,7 hPa 0,0 l/m 0 min 0 min 0 W/m 6,4 km/h (2 Bft) 93,62 %
05.03.2022 05:24 -0,3 C -1,1 C -4,4 C 86 % 1020,7 hPa 0,0 l/m 0 min 0 min 0 W/m 6,4 km/h (2 Bft) 95,65 %
05.03.2022 05:26 -0,3 C -1,1 C -4,4 C 86 % 1020,7 hPa 0,0 l/m 0 min 0 min 0 W/m 12,9 km/h (3 Bft) 91,49 %
05.03.2022 05:28 -0,3 C -1,1 C -4,4 C 86 % 1020,7 hPa 0,0 l/m 0 min 0 min 0 W/m 16,1 km/h (3 Bft) 95,74 %
05.03.2022 05:30 -0,3 C -1,1 C -4,4 C 86 % 1020,7 hPa 0,0 l/m 0 min 0 min 0 W/m 12,9 km/h (3 Bft) 95,74 %
05.03.2022 05:32 -0,3 C -1,1 C -4,4 C 86 % 1020,7 hPa 0,0 l/m 0 min 0 min 0 W/m 12,9 km/h (3 Bft) 97,87 %
05.03.2022 05:34 -0,3 C -1,1 C -4,4 C 86 % 1020,8 hPa 0,0 l/m 0 min 0 min 0 W/m 6,4 km/h (2 Bft) 97,87 %
05.03.2022 05:36 -0,4 C -1,1 C -4,4 C 86 % 1020,8 hPa 0,0 l/m 0 min 0 min 0 W/m 6,4 km/h (2 Bft) 95,65 %
05.03.2022 05:38 -0,3 C -1,1 C -4,4 C 86 % 1020,8 hPa 0,0 l/m 0 min 0 min 0 W/m 6,4 km/h (2 Bft) 97,87 %
05.03.2022 05:40 -0,3 C -1,1 C -4,4 C 86 % 1020,8 hPa 0,0 l/m 0 min 0 min 0 W/m 6,4 km/h (2 Bft) 100,00 %
05.03.2022 05:42 -0,3 C -1,1 C -4,4 C 86 % 1020,8 hPa 0,0 l/m 0 min 0 min 0 W/m 9,7 km/h (2 Bft) 100,00 %
05.03.2022 05:44 -0,3 C -1,1 C -4,4 C 86 % 1020,8 hPa 0,0 l/m 0 min 0 min 0 W/m 12,9 km/h (3 Bft) 100,00 %
05.03.2022 05:46 -0,3 C -1,1 C -4,4 C 86 % 1020,8 hPa 0,0 l/m 0 min 0 min 0 W/m 12,9 km/h (3 Bft) 100,00 %
05.03.2022 05:48 -0,3 C -1,1 C -4,4 C 86 % 1020,8 hPa 0,0 l/m 0 min 0 min 0 W/m 6,4 km/h (2 Bft) 100,00 %
05.03.2022 05:50 -0,3 C -1,1 C -4,4 C 86 % 1020,8 hPa 0,0 l/m 0 min 0 min 0 W/m 12,9 km/h (3 Bft) 100,00 %
05.03.2022 05:52 -0,3 C -1,1 C -4,4 C 86 % 1020,7 hPa 0,0 l/m 0 min 0 min 0 W/m 6,4 km/h (2 Bft) 95,74 %
05.03.2022 05:54 -0,3 C -1,1 C -4,4 C 86 % 1020,8 hPa 0,0 l/m 0 min 0 min 0 W/m 6,4 km/h (2 Bft) 100,00 %
05.03.2022 05:56 -0,4 C -1,1 C -4,4 C 86 % 1020,8 hPa 0,0 l/m 0 min 0 min 0 W/m 6,4 km/h (2 Bft) 100,00 %
05.03.2022 05:58 -0,4 C -1,1 C -4,4 C 86 % 1020,7 hPa 0,0 l/m 0 min 0 min 0 W/m 12,9 km/h (3 Bft) 100,00 %
05.03.2022 06:00 -0,4 C -1,1 C -4,4 C 86 % 1020,7 hPa 0,0 l/m 0 min 0 min 0 W/m 6,4 km/h (2 Bft) 100,00 %
05.03.2022 06:02 -0,4 C -1,1 C -4,4 C 86 % 1020,8 hPa 0,0 l/m 0 min 0 min 0 W/m 6,4 km/h (2 Bft) 100,00 %
05.03.2022 06:04 -0,4 C -1,1 C -4,4 C 86 % 1020,9 hPa 0,0 l/m 0 min 0 min 0 W/m 12,9 km/h (3 Bft) 100,00 %
05.03.2022 06:06 -0,4 C -1,1 C -4,4 C 86 % 1020,9 hPa 0,0 l/m 0 min 0 min 0 W/m 6,4 km/h (2 Bft) 100,00 %
05.03.2022 06:08 -0,4 C -1,1 C -4,4 C 86 % 1020,9 hPa 0,0 l/m 0 min 0 min 0 W/m 6,4 km/h (2 Bft) 97,87 %
05.03.2022 06:10 -0,4 C -1,1 C -4,4 C 86 % 1020,9 hPa 0,0 l/m 0 min 0 min 0 W/m 6,4 km/h (2 Bft) 100,00 %
05.03.2022 06:12 -0,4 C -1,1 C -4,4 C 86 % 1020,9 hPa 0,0 l/m 0 min 0 min 0 W/m 12,9 km/h (3 Bft) 100,00 %
05.03.2022 06:14 -0,4 C -1,1 C -4,4 C 86 % 1020,9 hPa 0,0 l/m 0 min 0 min 0 W/m 6,4 km/h (2 Bft) 100,00 %
05.03.2022 06:16 -0,4 C -1,1 C -4,4 C 86 % 1020,9 hPa 0,0 l/m 0 min 0 min 0 W/m 6,4 km/h (2 Bft) 97,87 %
05.03.2022 06:18 -0,4 C -1,1 C -4,4 C 86 % 1020,9 hPa 0,0 l/m 0 min 0 min 0 W/m 9,7 km/h (2 Bft) 100,00 %
05.03.2022 06:20 -0,5 C -1,1 C -4,4 C 86 % 1021,0 hPa 0,0 l/m 0 min 0 min 0 W/m 6,4 km/h (2 Bft) 100,00 %
05.03.2022 06:22 -0,5 C -1,1 C -4,4 C 86 % 1021,0 hPa 0,0 l/m 0 min 0 min 0 W/m 6,4 km/h (2 Bft) 100,00 %
05.03.2022 06:24 -0,5 C -1,1 C -4,4 C 86 % 1020,9 hPa 0,0 l/m 0 min 0 min 0 W/m 6,4 km/h (2 Bft) 100,00 %
05.03.2022 06:26 -0,5 C -1,1 C -4,4 C 86 % 1020,9 hPa 0,0 l/m 0 min 0 min 0 W/m 6,4 km/h (2 Bft) 100,00 %
05.03.2022 06:28 -0,6 C -1,7 C -4,4 C 86 % 1021,0 hPa 0,0 l/m 0 min 0 min 0 W/m 6,4 km/h (2 Bft) 100,00 %
05.03.2022 06:30 -0,6 C -1,7 C -4,4 C 86 % 1021,0 hPa 0,0 l/m 0 min 0 min 0 W/m 6,4 km/h (2 Bft) 100,00 %
05.03.2022 06:32 -0,6 C -1,7 C -4,4 C 86 % 1021,0 hPa 0,0 l/m 0 min 0 min 0 W/m 9,7 km/h (2 Bft) 100,00 %
05.03.2022 06:34 -0,6 C -1,1 C -4,4 C 86 % 1021,0 hPa 0,0 l/m 0 min 0 min 0 W/m 16,1 km/h (3 Bft) 97,87 %
05.03.2022 06:36 -0,6 C -1,1 C -4,4 C 86 % 1021,0 hPa 0,0 l/m 0 min 0 min 0 W/m 12,9 km/h (3 Bft) 100,00 %
05.03.2022 06:38 -0,6 C -1,7 C -4,4 C 86 % 1021,0 hPa 0,0 l/m 0 min 0 min 0 W/m 6,4 km/h (2 Bft) 100,00 %
05.03.2022 06:40 -0,6 C -1,7 C -4,4 C 86 % 1021,1 hPa 0,0 l/m 0 min 0 min 0 W/m 16,1 km/h (3 Bft) 100,00 %
05.03.2022 06:42 -0,6 C -1,7 C -4,4 C 86 % 1021,1 hPa 0,0 l/m 0 min 0 min 0 W/m 6,4 km/h (2 Bft) 100,00 %
05.03.2022 06:44 -0,6 C -1,7 C -4,4 C 86 % 1021,1 hPa 0,0 l/m 0 min 0 min 0 W/m 12,9 km/h (3 Bft) 97,83 %
05.03.2022 06:46 -0,6 C -1,1 C -4,4 C 86 % 1021,0 hPa 0,0 l/m 0 min 0 min 0 W/m 12,9 km/h (3 Bft) 97,87 %
05.03.2022 06:48 -0,6 C -1,1 C -4,4 C 86 % 1021,1 hPa 0,0 l/m 0 min 0 min 0 W/m 12,9 km/h (3 Bft) 95,74 %
05.03.2022 06:50 -0,6 C -1,7 C -4,4 C 86 % 1021,1 hPa 0,0 l/m 0 min 0 min 0 W/m 6,4 km/h (2 Bft) 97,87 %
05.03.2022 06:52 -0,7 C -1,7 C -4,4 C 86 % 1021,1 hPa 0,0 l/m 0 min 0 min 0 W/m 6,4 km/h (2 Bft) 97,87 %
05.03.2022 06:54 -0,6 C -1,7 C -4,4 C 86 % 1021,1 hPa 0,0 l/m 0 min 0 min 0 W/m 3,2 km/h (1 Bft) 97,87 %
05.03.2022 06:56 -0,7 C -1,7 C -4,4 C 86 % 1021,1 hPa 0,0 l/m 0 min 0 min 0 W/m 6,4 km/h (2 Bft) 91,30 %
05.03.2022 06:58 -0,7 C -1,7 C -4,4 C 86 % 1021,1 hPa 0,0 l/m 0 min 0 min 0 W/m 6,4 km/h (2 Bft) 96,00 %
05.03.2022 07:00 -0,7 C -1,7 C -4,4 C 86 % 1021,1 hPa 0,0 l/m 0 min 0 min 0 W/m 6,4 km/h (2 Bft) 95,74 %
05.03.2022 07:02 -0,7 C -1,7 C -4,4 C 86 % 1021,1 hPa 0,0 l/m 0 min 0 min 0 W/m 6,4 km/h (2 Bft) 95,74 %
05.03.2022 07:04 -0,7 C -1,7 C -4,4 C 86 % 1021,1 hPa 0,0 l/m 0 min 0 min 0 W/m 6,4 km/h (2 Bft) 95,74 %
05.03.2022 07:06 -0,7 C -1,7 C -4,4 C 86 % 1021,1 hPa 0,0 l/m 0 min 0 min 0 W/m 12,9 km/h (3 Bft) 95,74 %
05.03.2022 07:08 -0,7 C -1,7 C -4,4 C 86 % 1021,1 hPa 0,0 l/m 0 min 0 min 0 W/m 12,9 km/h (3 Bft) 95,65 %
05.03.2022 07:10 -0,7 C -1,7 C -4,4 C 86 % 1021,1 hPa 0,0 l/m 0 min 0 min 0 W/m 6,4 km/h (2 Bft) 95,74 %
05.03.2022 07:12 -0,7 C -1,7 C -4,4 C 86 % 1021,1 hPa 0,0 l/m 0 min 0 min 5 W/m 6,4 km/h (2 Bft) 93,62 %
05.03.2022 07:14 -0,7 C -1,7 C -4,4 C 86 % 1021,1 hPa 0,0 l/m 0 min 0 min 5 W/m 12,9 km/h (3 Bft) 95,74 %
05.03.2022 07:16 -0,7 C -1,7 C -4,4 C 86 % 1021,1 hPa 0,0 l/m 0 min 0 min 6 W/m 12,9 km/h (3 Bft) 93,62 %
05.03.2022 07:18 -0,8 C -1,7 C -4,4 C 86 % 1021,1 hPa 0,0 l/m 0 min 0 min 7 W/m 6,4 km/h (2 Bft) 97,87 %
05.03.2022 07:20 -0,8 C -1,7 C -4,4 C 86 % 1021,1 hPa 0,0 l/m 0 min 0 min 8 W/m 6,4 km/h (2 Bft) 95,65 %
05.03.2022 07:22 -0,8 C -1,7 C -4,4 C 86 % 1021,1 hPa 0,0 l/m 0 min 0 min 10 W/m 6,4 km/h (2 Bft) 95,74 %
05.03.2022 07:24 -0,8 C -1,7 C -4,4 C 86 % 1021,1 hPa 0,0 l/m 0 min 0 min 11 W/m 12,9 km/h (3 Bft) 100,00 %
05.03.2022 07:26 -0,8 C -1,7 C -4,4 C 86 % 1021,1 hPa 0,0 l/m 0 min 0 min 12 W/m 6,4 km/h (2 Bft) 97,87 %
05.03.2022 07:28 -0,8 C -1,7 C -4,4 C 87 % 1021,1 hPa 0,0 l/m 0 min 0 min 13 W/m 12,9 km/h (3 Bft) 100,00 %
05.03.2022 07:30 -0,8 C -1,7 C -4,4 C 87 % 1021,1 hPa 0,0 l/m 0 min 0 min 14 W/m 6,4 km/h (2 Bft) 97,87 %
05.03.2022 07:32 -0,8 C -1,7 C -4,4 C 87 % 1021,1 hPa 0,0 l/m 0 min 0 min 15 W/m 6,4 km/h (2 Bft) 100,00 %
05.03.2022 07:34 -0,8 C -1,7 C -4,4 C 87 % 1021,1 hPa 0,0 l/m 0 min 0 min 17 W/m 12,9 km/h (3 Bft) 100,00 %
05.03.2022 07:36 -0,8 C -1,7 C -4,4 C 87 % 1021,1 hPa 0,0 l/m 0 min 0 min 18 W/m 12,9 km/h (3 Bft) 100,00 %
05.03.2022 07:38 -0,8 C -1,1 C -4,4 C 87 % 1021,1 hPa 0,0 l/m 0 min 0 min 19 W/m 12,9 km/h (3 Bft) 100,00 %
05.03.2022 07:40 -0,8 C -1,1 C -4,4 C 87 % 1021,2 hPa 0,0 l/m 0 min 0 min 20 W/m 6,4 km/h (2 Bft) 100,00 %
05.03.2022 07:42 -0,8 C -1,1 C -4,4 C 87 % 1021,2 hPa 0,0 l/m 0 min 0 min 21 W/m 12,9 km/h (3 Bft) 97,87 %
05.03.2022 07:44 -0,8 C -1,1 C -4,4 C 87 % 1021,2 hPa 0,0 l/m 0 min 0 min 23 W/m 6,4 km/h (2 Bft) 100,00 %
05.03.2022 07:46 -0,8 C -1,1 C -4,4 C 87 % 1021,2 hPa 0,0 l/m 0 min 0 min 25 W/m 6,4 km/h (2 Bft) 97,87 %
05.03.2022 07:48 -0,7 C -1,1 C -4,4 C 87 % 1021,2 hPa 0,0 l/m 0 min 0 min 25 W/m 6,4 km/h (2 Bft) 100,00 %
05.03.2022 07:50 -0,7 C -1,1 C -4,4 C 87 % 1021,2 hPa 0,0 l/m 0 min 0 min 26 W/m 12,9 km/h (3 Bft) 100,00 %
05.03.2022 07:52 -0,7 C -1,1 C -4,4 C 87 % 1021,2 hPa 0,0 l/m 0 min 0 min 27 W/m 12,9 km/h (3 Bft) 100,00 %
05.03.2022 07:54 -0,7 C -1,1 C -4,4 C 87 % 1021,2 hPa 0,0 l/m 0 min 0 min 28 W/m 12,9 km/h (3 Bft) 97,83 %
05.03.2022 07:56 -0,7 C -1,1 C -4,4 C 87 % 1021,2 hPa 0,0 l/m 0 min 0 min 29 W/m 12,9 km/h (3 Bft) 95,74 %
05.03.2022 07:58 -0,7 C -1,1 C -4,4 C 87 % 1021,2 hPa 0,0 l/m 0 min 0 min 31 W/m 12,9 km/h (3 Bft) 97,87 %
05.03.2022 08:00 -0,6 C -1,1 C -4,4 C 87 % 1021,3 hPa 0,0 l/m 0 min 0 min 32 W/m 9,7 km/h (2 Bft) 97,87 %
05.03.2022 08:02 -0,6 C -1,1 C -4,4 C 87 % 1021,3 hPa 0,0 l/m 0 min 0 min 33 W/m 6,4 km/h (2 Bft) 95,45 %
05.03.2022 08:04 -0,6 C -1,1 C -4,4 C 87 % 1021,3 hPa 0,0 l/m 0 min 0 min 33 W/m 6,4 km/h (2 Bft) 97,87 %
05.03.2022 08:06 -0,6 C -1,1 C -4,4 C 87 % 1021,3 hPa 0,0 l/m 0 min 0 min 34 W/m 12,9 km/h (3 Bft) 97,83 %
05.03.2022 08:08 -0,5 C -0,6 C -3,9 C 87 % 1021,3 hPa 0,0 l/m 0 min 0 min 36 W/m 9,7 km/h (2 Bft) 95,74 %
05.03.2022 08:10 -0,5 C -0,6 C -3,9 C 87 % 1021,3 hPa 0,0 l/m 0 min 0 min 37 W/m 9,7 km/h (2 Bft) 97,87 %
05.03.2022 08:12 -0,4 C -0,6 C -3,9 C 87 % 1021,4 hPa 0,0 l/m 0 min 0 min 38 W/m 6,4 km/h (2 Bft) 95,74 %
05.03.2022 08:14 -0,4 C -0,6 C -3,9 C 87 % 1021,4 hPa 0,0 l/m 0 min 0 min 39 W/m 6,4 km/h (2 Bft) 95,74 %
05.03.2022 08:16 -0,4 C -0,6 C -3,9 C 87 % 1021,3 hPa 0,0 l/m 0 min 0 min 39 W/m 12,9 km/h (3 Bft) 95,65 %
05.03.2022 08:18 -0,4 C -0,6 C -3,9 C 87 % 1021,3 hPa 0,0 l/m 0 min 0 min 40 W/m 16,1 km/h (3 Bft) 97,87 %
05.03.2022 08:20 -0,3 C -0,6 C -3,9 C 87 % 1021,3 hPa 0,0 l/m 0 min 0 min 42 W/m 6,4 km/h (2 Bft) 97,87 %
05.03.2022 08:22 -0,3 C -0,6 C -3,9 C 87 % 1021,4 hPa 0,0 l/m 0 min 0 min 42 W/m 12,9 km/h (3 Bft) 97,87 %
05.03.2022 08:24 -0,2 C 0,0 C -3,9 C 87 % 1021,4 hPa 0,0 l/m 0 min 0 min 44 W/m 16,1 km/h (3 Bft) 95,74 %
05.03.2022 08:26 -0,2 C 0,0 C -3,9 C 87 % 1021,4 hPa 0,0 l/m 0 min 0 min 44 W/m 12,9 km/h (3 Bft) 97,87 %
05.03.2022 08:28 -0,1 C 0,0 C -3,9 C 87 % 1021,4 hPa 0,0 l/m 0 min 0 min 46 W/m 19,3 km/h (3 Bft) 97,83 %
05.03.2022 08:30 -0,1 C 0,0 C -3,9 C 87 % 1021,5 hPa 0,0 l/m 0 min 0 min 47 W/m 12,9 km/h (3 Bft) 97,87 %
05.03.2022 08:32 -0,1 C 0,0 C -3,9 C 87 % 1021,5 hPa 0,0 l/m 0 min 0 min 47 W/m 16,1 km/h (3 Bft) 95,74 %
05.03.2022 08:34 0,0 C 0,0 C -3,3 C 86 % 1021,5 hPa 0,0 l/m 0 min 0 min 48 W/m 19,3 km/h (3 Bft) 97,87 %
05.03.2022 08:36 0,1 C 0,0 C -3,3 C 86 % 1021,5 hPa 0,0 l/m 0 min 0 min 49 W/m 19,3 km/h (3 Bft) 97,87 %
05.03.2022 08:38 0,1 C 0,0 C -3,3 C 86 % 1021,5 hPa 0,0 l/m 0 min 0 min 50 W/m 19,3 km/h (3 Bft) 95,74 %
05.03.2022 08:40 0,2 C 0,0 C -3,3 C 86 % 1021,4 hPa 0,0 l/m 0 min 0 min 51 W/m 22,5 km/h (4 Bft) 97,83 %
05.03.2022 08:42 0,2 C 0,0 C -3,3 C 86 % 1021,4 hPa 0,0 l/m 0 min 0 min 52 W/m 12,9 km/h (3 Bft) 93,62 %
05.03.2022 08:44 0,3 C 0,6 C -3,3 C 86 % 1021,5 hPa 0,0 l/m 0 min 0 min 53 W/m 12,9 km/h (3 Bft) 70,21 %
05.03.2022 08:46 0,3 C 0,6 C -3,3 C 86 % 1021,5 hPa 0,0 l/m 0 min 0 min 71 W/m 19,3 km/h (3 Bft) 78,72 %
05.03.2022 08:48 0,4 C 0,6 C -3,3 C 86 % 1021,5 hPa 0,0 l/m 2 min 0 min 155 W/m 22,5 km/h (4 Bft) 97,87 %
05.03.2022 08:50 0,4 C 0,6 C -3,3 C 85 % 1021,5 hPa 0,0 l/m 2 min 0 min 191 W/m 16,1 km/h (3 Bft) 100,00 %
05.03.2022 08:52 0,6 C 0,6 C -3,3 C 85 % 1021,5 hPa 0,0 l/m 2 min 0 min 206 W/m 12,9 km/h (3 Bft) 95,65 %
05.03.2022 08:54 0,6 C 1,7 C -2,8 C 85 % 1021,5 hPa 0,0 l/m 2 min 0 min 211 W/m 19,3 km/h (3 Bft) 100,00 %
05.03.2022 08:56 0,7 C 2,2 C -2,8 C 85 % 1021,6 hPa 0,0 l/m 2 min 0 min 216 W/m 12,9 km/h (3 Bft) 95,74 %
05.03.2022 08:58 0,8 C 2,8 C -2,8 C 85 % 1021,5 hPa 0,0 l/m 2 min 0 min 200 W/m 19,3 km/h (3 Bft) 95,74 %
05.03.2022 09:00 0,9 C 2,8 C -2,8 C 85 % 1021,6 hPa 0,0 l/m 2 min 0 min 208 W/m 22,5 km/h (4 Bft) 95,74 %
05.03.2022 09:02 1,0 C 2,8 C -2,8 C 84 % 1021,6 hPa 0,0 l/m 2 min 0 min 188 W/m 19,3 km/h (3 Bft) 91,30 %
05.03.2022 09:04 1,1 C 3,3 C -2,8 C 84 % 1021,6 hPa 0,0 l/m 2 min 0 min 150 W/m 12,9 km/h (3 Bft) 95,74 %
05.03.2022 09:06 1,2 C 3,3 C -2,8 C 84 % 1021,6 hPa 0,0 l/m 2 min 0 min 209 W/m 25,7 km/h (4 Bft) 95,74 %
05.03.2022 09:08 1,3 C 2,8 C -2,2 C 83 % 1021,6 hPa 0,0 l/m 2 min 0 min 238 W/m 16,1 km/h (3 Bft) 95,74 %
05.03.2022 09:10 1,3 C 3,3 C -2,2 C 83 % 1021,6 hPa 0,0 l/m 2 min 0 min 249 W/m 16,1 km/h (3 Bft) 95,74 %
05.03.2022 09:12 1,4 C 3,3 C -2,2 C 83 % 1021,6 hPa 0,0 l/m 2 min 0 min 258 W/m 16,1 km/h (3 Bft) 93,62 %
05.03.2022 09:14 1,5 C 3,3 C -2,2 C 83 % 1021,7 hPa 0,0 l/m 2 min 0 min 263 W/m 16,1 km/h (3 Bft) 95,65 %
05.03.2022 09:16 1,6 C 3,3 C -2,2 C 82 % 1021,7 hPa 0,0 l/m 2 min 0 min 268 W/m 16,1 km/h (3 Bft) 95,74 %
05.03.2022 09:18 1,7 C 2,8 C -2,2 C 82 % 1021,7 hPa 0,0 l/m 2 min 0 min 260 W/m 22,5 km/h (4 Bft) 97,87 %
05.03.2022 09:20 1,7 C 2,8 C -2,2 C 82 % 1021,7 hPa 0,0 l/m 2 min 0 min 235 W/m 19,3 km/h (3 Bft) 97,87 %
05.03.2022 09:22 1,8 C 2,8 C -2,2 C 81 % 1021,7 hPa 0,0 l/m 2 min 0 min 203 W/m 19,3 km/h (3 Bft) 95,74 %
05.03.2022 09:24 1,8 C 3,3 C -2,2 C 81 % 1021,7 hPa 0,0 l/m 2 min 0 min 231 W/m 12,9 km/h (3 Bft) 97,87 %
05.03.2022 09:26 1,9 C 2,8 C -2,2 C 81 % 1021,7 hPa 0,0 l/m 2 min 0 min 214 W/m 22,5 km/h (4 Bft) 93,48 %
05.03.2022 09:28 1,9 C 2,8 C -2,2 C 81 % 1021,8 hPa 0,0 l/m 2 min 0 min 242 W/m 29,0 km/h (5 Bft) 97,87 %
05.03.2022 09:30 2,0 C 2,8 C -1,7 C 80 % 1021,7 hPa 0,0 l/m 2 min 0 min 251 W/m 25,7 km/h (4 Bft) 97,87 %
05.03.2022 09:32 2,1 C 3,3 C -1,7 C 80 % 1021,8 hPa 0,0 l/m 2 min 0 min 239 W/m 25,7 km/h (4 Bft) 97,87 %
05.03.2022 09:34 2,1 C 3,3 C -1,7 C 80 % 1021,8 hPa 0,0 l/m 2 min 0 min 246 W/m 16,1 km/h (3 Bft) 93,62 %
05.03.2022 09:36 2,2 C 3,3 C -1,7 C 80 % 1021,8 hPa 0,0 l/m 2 min 0 min 306 W/m 19,3 km/h (3 Bft) 97,87 %
05.03.2022 09:38 2,2 C 3,3 C -1,7 C 79 % 1021,8 hPa 0,0 l/m 2 min 0 min 233 W/m 22,5 km/h (4 Bft) 97,83 %
05.03.2022 09:40 2,3 C 3,3 C -1,7 C 79 % 1021,8 hPa 0,0 l/m 0 min 0 min 150 W/m 19,3 km/h (3 Bft) 97,87 %
05.03.2022 09:42 2,3 C 3,3 C -1,7 C 79 % 1021,8 hPa 0,0 l/m 0 min 0 min 160 W/m 19,3 km/h (3 Bft) 97,87 %
05.03.2022 09:44 2,4 C 3,3 C -1,7 C 79 % 1021,9 hPa 0,0 l/m 0 min 0 min 134 W/m 16,1 km/h (3 Bft) 97,87 %
05.03.2022 09:46 2,4 C 3,9 C -1,7 C 78 % 1021,8 hPa 0,0 l/m 0 min 0 min 151 W/m 19,3 km/h (3 Bft) 97,87 %
05.03.2022 09:48 2,5 C 3,9 C -1,7 C 78 % 1021,8 hPa 0,0 l/m 0 min 0 min 138 W/m 16,1 km/h (3 Bft) 97,87 %
05.03.2022 09:50 2,6 C 3,9 C -1,7 C 78 % 1021,8 hPa 0,0 l/m 0 min 0 min 144 W/m 16,1 km/h (3 Bft) 97,83 %
05.03.2022 09:52 2,6 C 3,9 C -1,1 C 78 % 1021,7 hPa 0,0 l/m 0 min 0 min 174 W/m 16,1 km/h (3 Bft) 97,87 %
05.03.2022 09:54 2,7 C 4,4 C -1,1 C 78 % 1021,7 hPa 0,0 l/m 2 min 0 min 207 W/m 16,1 km/h (3 Bft) 97,87 %
05.03.2022 09:56 2,7 C 3,9 C -1,1 C 78 % 1021,7 hPa 0,0 l/m 2 min 0 min 308 W/m 25,7 km/h (4 Bft) 97,87 %
05.03.2022 09:58 2,8 C 4,4 C -1,1 C 78 % 1021,7 hPa 0,0 l/m 2 min 0 min 308 W/m 16,1 km/h (3 Bft) 97,87 %
05.03.2022 10:00 2,8 C 4,4 C -1,1 C 77 % 1021,7 hPa 0,0 l/m 2 min 0 min 337 W/m 22,5 km/h (4 Bft) 97,83 %
05.03.2022 10:02 2,9 C 5,0 C -0,6 C 77 % 1021,6 hPa 0,0 l/m 2 min 0 min 267 W/m 16,1 km/h (3 Bft) 97,87 %
05.03.2022 10:04 3,1 C 6,1 C -0,6 C 77 % 1021,7 hPa 0,0 l/m 2 min 0 min 324 W/m 16,1 km/h (3 Bft) 95,74 %
05.03.2022 10:06 3,1 C 7,2 C -0,6 C 77 % 1021,6 hPa 0,0 l/m 2 min 0 min 338 W/m 22,5 km/h (4 Bft) 97,87 %
05.03.2022 10:09 3,3 C 6,1 C -0,6 C 77 % 1021,6 hPa 0,0 l/m 3 min 0 min 242 W/m 22,5 km/h (4 Bft) 98,57 %
05.03.2022 10:10 3,3 C 6,1 C 0,0 C 76 % 1021,6 hPa 0,0 l/m 1 min 0 min 234 W/m 12,9 km/h (3 Bft) 91,67 %
05.03.2022 10:12 3,4 C 6,1 C 0,0 C 76 % 1021,6 hPa 0,0 l/m 0 min 0 min 178 W/m 12,9 km/h (3 Bft) 97,87 %
05.03.2022 10:14 3,4 C 6,7 C 0,0 C 76 % 1021,6 hPa 0,0 l/m 0 min 0 min 151 W/m 19,3 km/h (3 Bft) 97,83 %
05.03.2022 10:16 3,5 C 6,7 C 0,0 C 76 % 1021,7 hPa 0,0 l/m 0 min 0 min 155 W/m 16,1 km/h (3 Bft) 97,87 %
05.03.2022 10:18 3,6 C 7,8 C 0,0 C 75 % 1021,7 hPa 0,0 l/m 0 min 0 min 141 W/m 12,9 km/h (3 Bft) 97,87 %
05.03.2022 10:20 3,7 C 8,3 C 0,6 C 75 % 1021,7 hPa 0,0 l/m 2 min 0 min 248 W/m 16,1 km/h (3 Bft) 97,87 %
05.03.2022 10:22 3,8 C 9,4 C 0,6 C 75 % 1021,6 hPa 0,0 l/m 2 min 0 min 257 W/m 16,1 km/h (3 Bft) 97,87 %
05.03.2022 10:24 3,9 C 10,0 C 1,1 C 74 % 1021,6 hPa 0,0 l/m 2 min 0 min 287 W/m 16,1 km/h (3 Bft) 97,83 %
05.03.2022 10:26 4,1 C 8,9 C 1,1 C 74 % 1021,7 hPa 0,0 l/m 2 min 0 min 431 W/m 19,3 km/h (3 Bft) 98,11 %
05.03.2022 10:28 4,1 C 8,3 C 1,1 C 74 % 1021,7 hPa 0,0 l/m 2 min 0 min 350 W/m 22,5 km/h (4 Bft) 97,92 %
05.03.2022 10:30 4,2 C 8,3 C 1,1 C 73 % 1021,7 hPa 0,0 l/m 2 min 0 min 319 W/m 19,3 km/h (3 Bft) 93,62 %
05.03.2022 10:32 4,3 C 9,4 C 1,1 C 73 % 1021,6 hPa 0,0 l/m 2 min 0 min 422 W/m 19,3 km/h (3 Bft) 95,83 %
05.03.2022 10:34 4,3 C 9,4 C 1,1 C 72 % 1021,7 hPa 0,0 l/m 2 min 0 min 452 W/m 12,9 km/h (3 Bft) 95,83 %
05.03.2022 10:36 4,4 C 10,0 C 1,7 C 73 % 1021,6 hPa 0,0 l/m 2 min 0 min 423 W/m 22,5 km/h (4 Bft) 95,65 %
05.03.2022 10:38 4,6 C 10,6 C 2,2 C 72 % 1021,6 hPa 0,0 l/m 2 min 0 min 331 W/m 16,1 km/h (3 Bft) 95,74 %
05.03.2022 10:40 4,7 C 10,6 C 2,2 C 72 % 1021,7 hPa 0,0 l/m 2 min 0 min 383 W/m 16,1 km/h (3 Bft) 93,75 %
05.03.2022 10:42 4,8 C 10,6 C 2,8 C 72 % 1021,7 hPa 0,0 l/m 2 min 0 min 440 W/m 19,3 km/h (3 Bft) 95,74 %
05.03.2022 10:44 4,9 C 10,6 C 3,3 C 71 % 1021,7 hPa 0,0 l/m 2 min 0 min 440 W/m 19,3 km/h (3 Bft) 95,74 %
05.03.2022 10:46 4,9 C 10,6 C 3,9 C 71 % 1021,7 hPa 0,0 l/m 2 min 0 min 430 W/m 16,1 km/h (3 Bft) 93,62 %
05.03.2022 10:48 5,1 C 11,1 C 4,4 C 71 % 1021,7 hPa 0,0 l/m 2 min 0 min 483 W/m 16,1 km/h (3 Bft) 95,74 %
05.03.2022 10:50 5,2 C 11,7 C 5,0 C 71 % 1021,7 hPa 0,0 l/m 2 min 0 min 487 W/m 22,5 km/h (4 Bft) 94,29 %
05.03.2022 10:52 5,3 C 11,7 C 5,0 C 70 % 1021,7 hPa 0,0 l/m 2 min 0 min 489 W/m 16,1 km/h (3 Bft) 91,67 %
05.03.2022 10:54 5,4 C 12,2 C 5,0 C 70 % 1021,7 hPa 0,0 l/m 2 min 0 min 492 W/m 12,9 km/h (3 Bft) 93,62 %
05.03.2022 10:56 5,6 C 12,2 C 5,0 C 70 % 1021,7 hPa 0,0 l/m 2 min 0 min 468 W/m 16,1 km/h (3 Bft) 93,62 %
05.03.2022 10:58 5,7 C 12,8 C 5,6 C 69 % 1021,7 hPa 0,0 l/m 2 min 0 min 495 W/m 12,9 km/h (3 Bft) 93,62 %
05.03.2022 11:00 5,8 C 12,2 C 6,1 C 69 % 1021,7 hPa 0,0 l/m 2 min 0 min 505 W/m 19,3 km/h (3 Bft) 93,48 %
05.03.2022 11:02 5,9 C 12,2 C 6,7 C 69 % 1021,7 hPa 0,0 l/m 2 min 0 min 508 W/m 16,1 km/h (3 Bft) 93,62 %
05.03.2022 11:04 6,0 C 12,2 C 6,7 C 68 % 1021,7 hPa 0,0 l/m 2 min 0 min 512 W/m 16,1 km/h (3 Bft) 93,62 %
05.03.2022 11:06 6,1 C 12,8 C 7,2 C 68 % 1021,7 hPa 0,0 l/m 2 min 0 min 514 W/m 16,1 km/h (3 Bft) 89,36 %
05.03.2022 11:08 6,1 C 12,8 C 7,2 C 67 % 1021,8 hPa 0,0 l/m 2 min 0 min 517 W/m 12,9 km/h (3 Bft) 91,49 %
05.03.2022 11:10 6,2 C 12,2 C 7,2 C 67 % 1021,7 hPa 0,0 l/m 2 min 0 min 520 W/m 16,1 km/h (3 Bft) 94,34 %
05.03.2022 11:12 6,2 C 12,2 C 7,2 C 67 % 1021,7 hPa 0,0 l/m 2 min 0 min 524 W/m 16,1 km/h (3 Bft) 91,30 %
05.03.2022 11:14 6,3 C 12,8 C 7,8 C 67 % 1021,8 hPa 0,0 l/m 2 min 0 min 526 W/m 12,9 km/h (3 Bft) 91,49 %
05.03.2022 11:16 6,4 C 13,3 C 8,3 C 67 % 1021,8 hPa 0,0 l/m 2 min 0 min 527 W/m 12,9 km/h (3 Bft) 91,49 %
05.03.2022 11:18 6,5 C 13,3 C 8,3 C 67 % 1021,7 hPa 0,0 l/m 2 min 0 min 532 W/m 19,3 km/h (3 Bft) 95,74 %
05.03.2022 11:20 6,6 C 12,8 C 8,3 C 66 % 1021,7 hPa 0,0 l/m 2 min 0 min 533 W/m 16,1 km/h (3 Bft) 97,92 %
05.03.2022 11:22 6,6 C 13,3 C 8,3 C 66 % 1021,8 hPa 0,0 l/m 2 min 0 min 537 W/m 19,3 km/h (3 Bft) 97,83 %
05.03.2022 11:24 6,7 C 12,8 C 8,3 C 66 % 1021,8 hPa 0,0 l/m 2 min 0 min 540 W/m 19,3 km/h (3 Bft) 97,87 %
05.03.2022 11:26 6,7 C 12,8 C 8,3 C 66 % 1021,7 hPa 0,0 l/m 2 min 0 min 543 W/m 16,1 km/h (3 Bft) 97,87 %
05.03.2022 11:28 6,7 C 13,3 C 8,9 C 65 % 1021,7 hPa 0,0 l/m 2 min 0 min 545 W/m 16,1 km/h (3 Bft) 97,87 %
05.03.2022 11:30 6,8 C 13,3 C 8,9 C 65 % 1021,7 hPa 0,0 l/m 2 min 0 min 546 W/m 12,9 km/h (3 Bft) 97,92 %
05.03.2022 11:32 6,8 C 13,3 C 8,9 C 65 % 1021,7 hPa 0,0 l/m 2 min 0 min 548 W/m 19,3 km/h (3 Bft) 95,83 %
05.03.2022 11:34 6,9 C 12,8 C 8,9 C 65 % 1021,8 hPa 0,0 l/m 2 min 0 min 551 W/m 12,9 km/h (3 Bft) 95,74 %
05.03.2022 11:36 6,9 C 13,3 C 8,9 C 65 % 1021,7 hPa 0,0 l/m 2 min 0 min 554 W/m 22,5 km/h (4 Bft) 97,92 %
05.03.2022 11:38 7,0 C 13,3 C 8,9 C 65 % 1021,7 hPa 0,0 l/m 2 min 0 min 555 W/m 16,1 km/h (3 Bft) 97,14 %
05.03.2022 11:40 7,1 C 12,8 C 8,9 C 64 % 1021,7 hPa 0,0 l/m 2 min 0 min 558 W/m 16,1 km/h (3 Bft) 97,92 %
05.03.2022 11:44 7,2 C 13,9 C 8,9 C 64 % 1021,7 hPa 0,0 l/m 4 min 0 min 560 W/m 16,1 km/h (3 Bft) 97,78 %
05.03.2022 11:46 7,2 C 13,9 C 8,3 C 64 % 1021,7 hPa 0,0 l/m 2 min 0 min 561 W/m 19,3 km/h (3 Bft) 97,87 %
05.03.2022 11:48 7,3 C 15,0 C 8,3 C 64 % 1021,7 hPa 0,0 l/m 2 min 0 min 564 W/m 9,7 km/h (2 Bft) 97,87 %
05.03.2022 11:50 7,4 C 14,4 C 7,8 C 64 % 1021,6 hPa 0,0 l/m 2 min 0 min 567 W/m 19,3 km/h (3 Bft) 97,87 %
05.03.2022 11:52 7,5 C 13,9 C 7,8 C 64 % 1021,6 hPa 0,0 l/m 2 min 0 min 555 W/m 16,1 km/h (3 Bft) 97,87 %
05.03.2022 11:54 7,6 C 13,3 C 7,8 C 64 % 1021,6 hPa 0,0 l/m 2 min 0 min 513 W/m 16,1 km/h (3 Bft) 97,83 %
05.03.2022 11:56 7,6 C 12,8 C 7,8 C 63 % 1021,6 hPa 0,0 l/m 2 min 0 min 556 W/m 12,9 km/h (3 Bft) 97,87 %
05.03.2022 11:58 7,7 C 12,2 C 7,8 C 63 % 1021,5 hPa 0,0 l/m 2 min 0 min 573 W/m 12,9 km/h (3 Bft) 97,87 %
05.03.2022 12:00 7,8 C 12,2 C 7,2 C 63 % 1021,5 hPa 0,0 l/m 2 min 0 min 452 W/m 12,9 km/h (3 Bft) 95,74 %
05.03.2022 12:02 7,8 C 11,1 C 7,2 C 62 % 1021,5 hPa 0,0 l/m 2 min 0 min 425 W/m 19,3 km/h (3 Bft) 95,74 %
05.03.2022 12:04 7,8 C 11,1 C 7,2 C 62 % 1021,5 hPa 0,0 l/m 2 min 0 min 344 W/m 16,1 km/h (3 Bft) 97,87 %
05.03.2022 12:08 7,9 C 11,1 C 7,2 C 62 % 1021,5 hPa 0,0 l/m 4 min 0 min 327 W/m 16,1 km/h (3 Bft) 97,87 %
05.03.2022 12:10 7,8 C 11,1 C 7,2 C 62 % 1021,4 hPa 0,0 l/m 2 min 0 min 372 W/m 6,4 km/h (2 Bft) 97,87 %
05.03.2022 12:12 7,9 C 10,6 C 6,7 C 62 % 1021,5 hPa 0,0 l/m 0 min 0 min 254 W/m 9,7 km/h (2 Bft) 97,87 %
05.03.2022 12:14 7,9 C 10,0 C 6,1 C 62 % 1021,5 hPa 0,0 l/m 0 min 0 min 208 W/m 12,9 km/h (3 Bft) 97,87 %
05.03.2022 12:16 7,9 C 10,0 C 6,1 C 62 % 1021,5 hPa 0,0 l/m 2 min 0 min 291 W/m 6,4 km/h (2 Bft) 97,87 %
05.03.2022 12:18 7,9 C 9,4 C 6,1 C 62 % 1021,5 hPa 0,0 l/m 0 min 0 min 211 W/m 19,3 km/h (3 Bft) 97,83 %
05.03.2022 12:20 7,9 C 10,0 C 6,1 C 62 % 1021,4 hPa 0,0 l/m 2 min 0 min 312 W/m 12,9 km/h (3 Bft) 97,87 %
05.03.2022 12:22 7,9 C 10,0 C 6,7 C 62 % 1021,5 hPa 0,0 l/m 2 min 0 min 377 W/m 12,9 km/h (3 Bft) 97,87 %
05.03.2022 12:24 7,9 C 9,4 C 6,7 C 62 % 1021,5 hPa 0,0 l/m 2 min 0 min 398 W/m 16,1 km/h (3 Bft) 95,74 %
05.03.2022 12:26 7,9 C 10,0 C 6,7 C 62 % 1021,4 hPa 0,0 l/m 2 min 0 min 448 W/m 12,9 km/h (3 Bft) 97,87 %
05.03.2022 12:28 8,0 C 10,0 C 7,2 C 62 % 1021,5 hPa 0,0 l/m 2 min 0 min 420 W/m 12,9 km/h (3 Bft) 97,87 %
05.03.2022 12:30 8,0 C 10,6 C 6,7 C 62 % 1021,5 hPa 0,0 l/m 2 min 0 min 347 W/m 12,9 km/h (3 Bft) 97,83 %
05.03.2022 12:32 8,0 C 11,1 C 6,7 C 62 % 1021,5 hPa 0,0 l/m 2 min 0 min 370 W/m 16,1 km/h (3 Bft) 95,74 %
05.03.2022 12:34 8,1 C 11,1 C 6,7 C 61 % 1021,5 hPa 0,0 l/m 2 min 0 min 465 W/m 16,1 km/h (3 Bft) 95,74 %
05.03.2022 12:36 8,1 C 11,1 C 6,7 C 61 % 1021,5 hPa 0,0 l/m 2 min 0 min 521 W/m 16,1 km/h (3 Bft) 91,49 %
05.03.2022 12:38 8,1 C 10,6 C 6,7 C 61 % 1021,5 hPa 0,0 l/m 2 min 0 min 538 W/m 16,1 km/h (3 Bft) 95,74 %
05.03.2022 12:40 8,1 C 10,6 C 6,1 C 61 % 1021,4 hPa 0,0 l/m 2 min 0 min 518 W/m 16,1 km/h (3 Bft) 95,74 %
05.03.2022 12:42 8,1 C 10,6 C 5,6 C 61 % 1021,4 hPa 0,0 l/m 2 min 0 min 581 W/m 12,9 km/h (3 Bft) 93,48 %
05.03.2022 12:44 8,2 C 11,7 C 5,6 C 61 % 1021,4 hPa 0,0 l/m 2 min 0 min 593 W/m 16,1 km/h (3 Bft) 95,74 %
05.03.2022 12:46 8,3 C 12,8 C 5,6 C 61 % 1021,4 hPa 0,0 l/m 2 min 0 min 595 W/m 6,4 km/h (2 Bft) 93,62 %
05.03.2022 12:48 8,4 C 13,3 C 5,6 C 61 % 1021,4 hPa 0,0 l/m 2 min 0 min 596 W/m 19,3 km/h (3 Bft) 95,74 %
05.03.2022 12:50 8,5 C 13,9 C 5,6 C 61 % 1021,3 hPa 0,0 l/m 2 min 0 min 596 W/m 19,3 km/h (3 Bft) 95,74 %
05.03.2022 12:52 8,6 C 15,0 C 5,6 C 60 % 1021,3 hPa 0,0 l/m 2 min 0 min 595 W/m 6,4 km/h (2 Bft) 95,74 %
05.03.2022 12:54 8,7 C 15,6 C 5,0 C 60 % 1021,3 hPa 0,0 l/m 2 min 0 min 596 W/m 16,1 km/h (3 Bft) 95,65 %
05.03.2022 12:56 8,7 C 15,6 C 5,0 C 59 % 1021,3 hPa 0,0 l/m 2 min 0 min 596 W/m 16,1 km/h (3 Bft) 95,74 %
05.03.2022 12:58 8,8 C 16,1 C 5,0 C 59 % 1021,3 hPa 0,0 l/m 2 min 0 min 598 W/m 16,1 km/h (3 Bft) 95,74 %
05.03.2022 13:00 8,8 C 16,7 C 5,0 C 59 % 1021,2 hPa 0,0 l/m 2 min 0 min 595 W/m 16,1 km/h (3 Bft) 95,74 %
05.03.2022 13:02 8,9 C 16,7 C 5,0 C 59 % 1021,2 hPa 0,0 l/m 2 min 0 min 594 W/m 19,3 km/h (3 Bft) 95,74 %
05.03.2022 13:04 8,9 C 17,2 C 5,6 C 59 % 1021,3 hPa 0,0 l/m 2 min 0 min 593 W/m 12,9 km/h (3 Bft) 93,62 %
05.03.2022 13:06 9,1 C 17,2 C 5,6 C 59 % 1021,2 hPa 0,0 l/m 2 min 0 min 591 W/m 16,1 km/h (3 Bft) 97,83 %
05.03.2022 13:08 9,2 C 17,8 C 5,6 C 58 % 1021,2 hPa 0,0 l/m 2 min 0 min 589 W/m 9,7 km/h (2 Bft) 97,87 %
05.03.2022 13:10 9,3 C 17,8 C 5,6 C 58 % 1021,2 hPa 0,0 l/m 2 min 0 min 587 W/m 16,1 km/h (3 Bft) 95,74 %
05.03.2022 13:12 9,4 C 16,7 C 5,6 C 57 % 1021,1 hPa 0,0 l/m 2 min 0 min 589 W/m 16,1 km/h (3 Bft) 100,00 %
05.03.2022 13:14 9,4 C 17,2 C 5,6 C 57 % 1021,1 hPa 0,0 l/m 2 min 0 min 591 W/m 16,1 km/h (3 Bft) 100,00 %
05.03.2022 13:16 9,6 C 17,8 C 5,6 C 57 % 1021,1 hPa 0,0 l/m 2 min 0 min 588 W/m 9,7 km/h (2 Bft) 100,00 %
05.03.2022 13:18 9,6 C 18,3 C 5,6 C 57 % 1021,1 hPa 0,0 l/m 2 min 0 min 585 W/m 12,9 km/h (3 Bft) 100,00 %
05.03.2022 13:20 9,6 C 17,8 C 5,0 C 56 % 1021,0 hPa 0,0 l/m 2 min 0 min 588 W/m 25,7 km/h (4 Bft) 100,00 %
05.03.2022 13:22 9,6 C 17,8 C 5,6 C 56 % 1021,1 hPa 0,0 l/m 2 min 0 min 588 W/m 16,1 km/h (3 Bft) 95,74 %
05.03.2022 13:24 9,6 C 16,7 C 5,0 C 56 % 1021,0 hPa 0,0 l/m 2 min 0 min 585 W/m 16,1 km/h (3 Bft) 97,87 %
05.03.2022 13:26 9,6 C 17,2 C 5,0 C 56 % 1021,1 hPa 0,0 l/m 2 min 0 min 584 W/m 16,1 km/h (3 Bft) 97,87 %
05.03.2022 13:28 9,6 C 17,2 C 5,0 C 57 % 1021,0 hPa 0,0 l/m 2 min 0 min 581 W/m 12,9 km/h (3 Bft) 97,83 %
05.03.2022 13:30 9,6 C 17,2 C 5,0 C 57 % 1021,0 hPa 0,0 l/m 2 min 0 min 578 W/m 12,9 km/h (3 Bft) 97,87 %
05.03.2022 13:32 9,7 C 17,8 C 5,6 C 57 % 1021,0 hPa 0,0 l/m 2 min 0 min 578 W/m 12,9 km/h (3 Bft) 97,87 %
05.03.2022 13:34 9,7 C 18,3 C 5,6 C 56 % 1021,0 hPa 0,0 l/m 2 min 0 min 577 W/m 12,9 km/h (3 Bft) 97,87 %
05.03.2022 13:36 9,8 C 18,3 C 5,6 C 56 % 1021,0 hPa 0,0 l/m 2 min 0 min 577 W/m 12,9 km/h (3 Bft) 95,74 %
05.03.2022 13:38 9,8 C 18,3 C 5,6 C 55 % 1021,0 hPa 0,0 l/m 2 min 0 min 580 W/m 9,7 km/h (2 Bft) 97,87 %
05.03.2022 13:40 9,9 C 18,9 C 5,6 C 55 % 1021,0 hPa 0,0 l/m 2 min 0 min 577 W/m 16,1 km/h (3 Bft) 95,65 %
05.03.2022 13:42 10,1 C 18,3 C 5,6 C 55 % 1021,1 hPa 0,0 l/m 2 min 0 min 574 W/m 19,3 km/h (3 Bft) 97,87 %
05.03.2022 13:44 10,1 C 18,3 C 5,6 C 54 % 1021,0 hPa 0,0 l/m 2 min 0 min 571 W/m 16,1 km/h (3 Bft) 97,87 %
05.03.2022 13:46 10,1 C 18,9 C 5,6 C 54 % 1021,0 hPa 0,0 l/m 2 min 0 min 569 W/m 16,1 km/h (3 Bft) 100,00 %
05.03.2022 13:48 10,2 C 20,0 C 5,6 C 54 % 1021,0 hPa 0,0 l/m 2 min 0 min 566 W/m 9,7 km/h (2 Bft) 97,87 %
05.03.2022 13:50 10,3 C 20,6 C 5,6 C 54 % 1020,9 hPa 0,0 l/m 2 min 0 min 566 W/m 6,4 km/h (2 Bft) 95,74 %
05.03.2022 13:52 10,4 C 21,1 C 5,6 C 54 % 1021,0 hPa 0,0 l/m 2 min 0 min 564 W/m 9,7 km/h (2 Bft) 97,83 %
05.03.2022 13:54 10,6 C 22,2 C 5,6 C 55 % 1020,9 hPa 0,0 l/m 2 min 0 min 565 W/m 6,4 km/h (2 Bft) 97,87 %
05.03.2022 13:56 10,6 C 20,0 C 5,6 C 54 % 1020,9 hPa 0,0 l/m 2 min 0 min 564 W/m 9,7 km/h (2 Bft) 97,87 %
05.03.2022 13:58 10,7 C 18,9 C 5,6 C 53 % 1020,9 hPa 0,0 l/m 2 min 0 min 563 W/m 12,9 km/h (3 Bft) 95,74 %
05.03.2022 14:00 10,7 C 17,8 C 5,6 C 52 % 1020,9 hPa 0,0 l/m 2 min 0 min 561 W/m 12,9 km/h (3 Bft) 97,87 %
05.03.2022 14:02 10,8 C 16,7 C 5,6 C 52 % 1020,9 hPa 0,0 l/m 2 min 0 min 559 W/m 12,9 km/h (3 Bft) 97,87 %
05.03.2022 14:04 10,8 C 16,1 C 5,6 C 51 % 1020,9 hPa 0,0 l/m 2 min 0 min 555 W/m 12,9 km/h (3 Bft) 97,83 %
05.03.2022 14:06 10,7 C 16,1 C 5,6 C 51 % 1020,9 hPa 0,0 l/m 2 min 0 min 553 W/m 16,1 km/h (3 Bft) 97,87 %
05.03.2022 14:08 10,7 C 16,1 C 5,6 C 50 % 1020,9 hPa 0,0 l/m 2 min 0 min 551 W/m 12,9 km/h (3 Bft) 97,87 %
05.03.2022 14:10 10,7 C 15,6 C 5,6 C 50 % 1020,9 hPa 0,0 l/m 2 min 0 min 547 W/m 19,3 km/h (3 Bft) 97,22 %
05.03.2022 14:12 10,7 C 15,6 C 5,6 C 50 % 1020,9 hPa 0,0 l/m 2 min 0 min 544 W/m 12,9 km/h (3 Bft) 97,87 %
05.03.2022 14:14 10,6 C 15,0 C 5,6 C 49 % 1020,9 hPa 0,0 l/m 2 min 0 min 543 W/m 16,1 km/h (3 Bft) 97,87 %
05.03.2022 14:16 10,7 C 15,6 C 5,6 C 49 % 1020,8 hPa 0,0 l/m 2 min 0 min 541 W/m 12,9 km/h (3 Bft) 97,83 %
05.03.2022 14:18 10,7 C 15,6 C 5,6 C 49 % 1020,8 hPa 0,0 l/m 2 min 0 min 539 W/m 19,3 km/h (3 Bft) 100,00 %
05.03.2022 14:20 10,7 C 16,1 C 5,6 C 49 % 1020,8 hPa 0,0 l/m 2 min 0 min 535 W/m 16,1 km/h (3 Bft) 100,00 %
05.03.2022 14:22 10,7 C 17,2 C 6,1 C 49 % 1020,9 hPa 0,0 l/m 2 min 0 min 532 W/m 12,9 km/h (3 Bft) 100,00 %
05.03.2022 14:24 10,8 C 17,2 C 6,1 C 49 % 1020,8 hPa 0,0 l/m 2 min 0 min 530 W/m 16,1 km/h (3 Bft) 97,87 %
05.03.2022 14:26 10,9 C 17,2 C 6,1 C 49 % 1020,8 hPa 0,0 l/m 2 min 0 min 529 W/m 12,9 km/h (3 Bft) 100,00 %
05.03.2022 14:28 10,9 C 16,7 C 6,1 C 48 % 1020,8 hPa 0,0 l/m 2 min 0 min 526 W/m 16,1 km/h (3 Bft) 100,00 %
05.03.2022 14:30 10,8 C 16,1 C 6,1 C 48 % 1020,8 hPa 0,0 l/m 2 min 0 min 521 W/m 16,1 km/h (3 Bft) 100,00 %
05.03.2022 14:32 10,9 C 16,1 C 6,1 C 48 % 1020,8 hPa 0,0 l/m 2 min 0 min 519 W/m 12,9 km/h (3 Bft) 97,87 %
05.03.2022 14:34 10,9 C 15,6 C 6,1 C 48 % 1020,7 hPa 0,0 l/m 2 min 0 min 516 W/m 16,1 km/h (3 Bft) 100,00 %
05.03.2022 14:36 10,9 C 15,6 C 6,1 C 48 % 1020,7 hPa 0,0 l/m 2 min 0 min 515 W/m 19,3 km/h (3 Bft) 100,00 %
05.03.2022 14:38 10,9 C 16,1 C 6,1 C 48 % 1020,7 hPa 0,0 l/m 2 min 0 min 510 W/m 16,1 km/h (3 Bft) 100,00 %
05.03.2022 14:40 11,0 C 16,1 C 6,1 C 48 % 1020,7 hPa 0,0 l/m 2 min 0 min 505 W/m 16,1 km/h (3 Bft) 100,00 %
05.03.2022 14:42 10,9 C 16,7 C 6,1 C 48 % 1020,7 hPa 0,0 l/m 2 min 0 min 502 W/m 16,1 km/h (3 Bft) 95,74 %
05.03.2022 14:44 10,9 C 16,1 C 6,1 C 47 % 1020,7 hPa 0,0 l/m 2 min 0 min 497 W/m 12,9 km/h (3 Bft) 100,00 %
05.03.2022 14:46 10,9 C 16,7 C 6,1 C 47 % 1020,7 hPa 0,0 l/m 2 min 0 min 495 W/m 16,1 km/h (3 Bft) 97,87 %
05.03.2022 14:48 10,9 C 16,7 C 6,1 C 47 % 1020,7 hPa 0,0 l/m 2 min 0 min 493 W/m 19,3 km/h (3 Bft) 100,00 %
05.03.2022 14:50 10,9 C 16,1 C 6,1 C 47 % 1020,8 hPa 0,0 l/m 2 min 0 min 489 W/m 9,7 km/h (2 Bft) 100,00 %
05.03.2022 14:52 10,9 C 15,6 C 6,1 C 47 % 1020,7 hPa 0,0 l/m 2 min 0 min 485 W/m 12,9 km/h (3 Bft) 100,00 %
05.03.2022 14:54 10,9 C 14,4 C 6,1 C 47 % 1020,7 hPa 0,0 l/m 2 min 0 min 478 W/m 12,9 km/h (3 Bft) 97,87 %
05.03.2022 14:56 10,9 C 13,9 C 6,1 C 47 % 1020,7 hPa 0,0 l/m 2 min 0 min 475 W/m 9,7 km/h (2 Bft) 97,87 %
05.03.2022 14:58 10,9 C 14,4 C 6,1 C 47 % 1020,8 hPa 0,0 l/m 2 min 0 min 473 W/m 12,9 km/h (3 Bft) 100,00 %
05.03.2022 15:00 10,9 C 14,4 C 6,1 C 46 % 1020,8 hPa 0,0 l/m 2 min 0 min 471 W/m 9,7 km/h (2 Bft) 100,00 %
05.03.2022 15:02 10,9 C 15,6 C 5,6 C 47 % 1020,7 hPa 0,0 l/m 2 min 0 min 466 W/m 6,4 km/h (2 Bft) 100,00 %
05.03.2022 15:04 10,9 C 15,6 C 5,6 C 47 % 1020,7 hPa 0,0 l/m 2 min 0 min 463 W/m 12,9 km/h (3 Bft) 100,00 %
05.03.2022 15:06 10,9 C 16,1 C 5,6 C 47 % 1020,8 hPa 0,0 l/m 2 min 0 min 458 W/m 12,9 km/h (3 Bft) 97,87 %
05.03.2022 15:08 10,9 C 16,1 C 5,6 C 47 % 1020,8 hPa 0,0 l/m 2 min 0 min 454 W/m 12,9 km/h (3 Bft) 100,00 %
05.03.2022 15:10 10,9 C 15,6 C 5,6 C 46 % 1020,7 hPa 0,0 l/m 2 min 0 min 451 W/m 16,1 km/h (3 Bft) 100,00 %
05.03.2022 15:12 10,9 C 15,0 C 6,1 C 47 % 1020,8 hPa 0,0 l/m 2 min 0 min 447 W/m 12,9 km/h (3 Bft) 100,00 %
05.03.2022 15:14 10,9 C 15,0 C 6,1 C 47 % 1020,8 hPa 0,0 l/m 2 min 0 min 441 W/m 12,9 km/h (3 Bft) 97,87 %
05.03.2022 15:16 10,9 C 13,9 C 6,1 C 46 % 1020,7 hPa 0,0 l/m 2 min 0 min 438 W/m 16,1 km/h (3 Bft) 97,83 %
05.03.2022 15:18 10,8 C 14,4 C 6,1 C 46 % 1020,8 hPa 0,0 l/m 2 min 0 min 432 W/m 12,9 km/h (3 Bft) 95,74 %
05.03.2022 15:20 10,9 C 13,9 C 6,1 C 46 % 1020,8 hPa 0,0 l/m 2 min 0 min 429 W/m 12,9 km/h (3 Bft) 95,74 %
05.03.2022 15:22 10,9 C 15,0 C 6,1 C 46 % 1020,7 hPa 0,0 l/m 2 min 0 min 424 W/m 6,4 km/h (2 Bft) 97,87 %
05.03.2022 15:24 10,9 C 15,0 C 6,1 C 46 % 1020,7 hPa 0,0 l/m 2 min 0 min 417 W/m 12,9 km/h (3 Bft) 97,87 %
05.03.2022 15:26 10,9 C 14,4 C 6,1 C 47 % 1020,7 hPa 0,0 l/m 2 min 0 min 411 W/m 16,1 km/h (3 Bft) 95,65 %
05.03.2022 15:28 10,8 C 14,4 C 6,1 C 46 % 1020,8 hPa 0,0 l/m 2 min 0 min 407 W/m 16,1 km/h (3 Bft) 97,87 %
05.03.2022 15:30 10,8 C 15,0 C 5,6 C 47 % 1020,7 hPa 0,0 l/m 2 min 0 min 405 W/m 12,9 km/h (3 Bft) 97,87 %
05.03.2022 15:32 10,8 C 16,7 C 5,6 C 47 % 1020,7 hPa 0,0 l/m 2 min 0 min 402 W/m 12,9 km/h (3 Bft) 95,74 %
05.03.2022 15:34 10,8 C 16,7 C 5,6 C 47 % 1020,7 hPa 0,0 l/m 2 min 0 min 393 W/m 12,9 km/h (3 Bft) 95,74 %
05.03.2022 15:36 10,8 C 16,1 C 5,6 C 46 % 1020,7 hPa 0,0 l/m 2 min 0 min 384 W/m 12,9 km/h (3 Bft) 97,87 %
05.03.2022 15:38 10,8 C 15,6 C 5,6 C 46 % 1020,7 hPa 0,0 l/m 2 min 0 min 380 W/m 6,4 km/h (2 Bft) 98,15 %
05.03.2022 15:40 10,8 C 15,6 C 5,6 C 46 % 1020,7 hPa 0,0 l/m 2 min 0 min 379 W/m 6,4 km/h (2 Bft) 97,87 %
05.03.2022 15:42 10,8 C 15,6 C 5,6 C 46 % 1020,7 hPa 0,0 l/m 2 min 0 min 377 W/m 12,9 km/h (3 Bft) 95,74 %
05.03.2022 15:44 10,8 C 15,6 C 5,6 C 46 % 1020,7 hPa 0,0 l/m 2 min 0 min 373 W/m 12,9 km/h (3 Bft) 97,87 %
05.03.2022 15:46 10,8 C 15,6 C 5,6 C 46 % 1020,7 hPa 0,0 l/m 2 min 0 min 367 W/m 12,9 km/h (3 Bft) 97,87 %
05.03.2022 15:48 10,7 C 16,1 C 5,6 C 46 % 1020,7 hPa 0,0 l/m 2 min 0 min 360 W/m 6,4 km/h (2 Bft) 97,87 %
05.03.2022 15:50 10,7 C 16,1 C 5,0 C 47 % 1020,7 hPa 0,0 l/m 2 min 0 min 355 W/m 6,4 km/h (2 Bft) 95,65 %
05.03.2022 15:52 10,8 C 16,7 C 5,0 C 47 % 1020,7 hPa 0,0 l/m 2 min 0 min 352 W/m 6,4 km/h (2 Bft) 91,49 %
05.03.2022 15:54 10,7 C 17,2 C 5,0 C 47 % 1020,7 hPa 0,0 l/m 2 min 0 min 350 W/m 12,9 km/h (3 Bft) 97,87 %
05.03.2022 15:56 10,7 C 16,7 C 5,0 C 47 % 1020,7 hPa 0,0 l/m 2 min 0 min 345 W/m 12,9 km/h (3 Bft) 93,62 %
05.03.2022 15:58 10,7 C 17,2 C 4,4 C 48 % 1020,7 hPa 0,0 l/m 2 min 0 min 338 W/m 6,4 km/h (2 Bft) 93,62 %
05.03.2022 16:00 10,7 C 16,7 C 5,0 C 48 % 1020,7 hPa 0,0 l/m 2 min 0 min 332 W/m 12,9 km/h (3 Bft) 91,49 %
05.03.2022 16:02 10,7 C 16,1 C 5,0 C 47 % 1020,7 hPa 0,0 l/m 2 min 0 min 326 W/m 12,9 km/h (3 Bft) 93,48 %
05.03.2022 16:04 10,7 C 16,1 C 5,0 C 47 % 1020,7 hPa 0,0 l/m 2 min 0 min 319 W/m 6,4 km/h (2 Bft) 93,62 %
05.03.2022 16:06 10,7 C 16,1 C 5,0 C 47 % 1020,7 hPa 0,0 l/m 2 min 0 min 313 W/m 6,4 km/h (2 Bft) 93,62 %
05.03.2022 16:08 10,6 C 15,6 C 5,0 C 47 % 1020,7 hPa 0,0 l/m 2 min 0 min 305 W/m 12,9 km/h (3 Bft) 94,00 %
05.03.2022 16:10 10,6 C 15,6 C 5,0 C 47 % 1020,7 hPa 0,0 l/m 2 min 0 min 299 W/m 6,4 km/h (2 Bft) 95,74 %
05.03.2022 16:12 10,6 C 16,1 C 5,0 C 47 % 1020,7 hPa 0,0 l/m 2 min 0 min 292 W/m 6,4 km/h (2 Bft) 93,48 %
05.03.2022 16:14 10,5 C 15,6 C 5,0 C 47 % 1020,6 hPa 0,0 l/m 2 min 0 min 288 W/m 6,4 km/h (2 Bft) 93,62 %
05.03.2022 16:16 10,4 C 14,4 C 4,4 C 46 % 1020,7 hPa 0,0 l/m 2 min 0 min 284 W/m 6,4 km/h (2 Bft) 91,49 %
05.03.2022 16:18 10,4 C 12,8 C 5,0 C 47 % 1020,6 hPa 0,0 l/m 2 min 0 min 277 W/m 6,4 km/h (2 Bft) 93,62 %
05.03.2022 16:20 10,3 C 11,1 C 4,4 C 47 % 1020,6 hPa 0,0 l/m 2 min 0 min 272 W/m 12,9 km/h (3 Bft) 91,49 %
05.03.2022 16:22 10,3 C 10,0 C 4,4 C 46 % 1020,6 hPa 0,0 l/m 2 min 0 min 266 W/m 12,9 km/h (3 Bft) 91,49 %
05.03.2022 16:24 10,3 C 9,4 C 4,4 C 46 % 1020,5 hPa 0,0 l/m 2 min 0 min 258 W/m 12,9 km/h (3 Bft) 93,48 %
05.03.2022 16:26 10,2 C 9,4 C 4,4 C 46 % 1020,6 hPa 0,0 l/m 2 min 0 min 252 W/m 9,7 km/h (2 Bft) 91,49 %
05.03.2022 16:28 10,1 C 9,4 C 4,4 C 46 % 1020,6 hPa 0,0 l/m 2 min 0 min 246 W/m 12,9 km/h (3 Bft) 93,62 %
05.03.2022 16:30 10,1 C 9,4 C 4,4 C 46 % 1020,5 hPa 0,0 l/m 2 min 0 min 240 W/m 12,9 km/h (3 Bft) 93,62 %
05.03.2022 16:32 10,1 C 9,4 C 4,4 C 46 % 1020,5 hPa 0,0 l/m 2 min 0 min 233 W/m 9,7 km/h (2 Bft) 93,62 %
05.03.2022 16:34 10,0 C 9,4 C 4,4 C 46 % 1020,5 hPa 0,0 l/m 2 min 0 min 226 W/m 6,4 km/h (2 Bft) 91,49 %
05.03.2022 16:36 10,0 C 8,9 C 4,4 C 46 % 1020,5 hPa 0,0 l/m 2 min 0 min 219 W/m 6,4 km/h (2 Bft) 93,48 %
05.03.2022 16:38 9,9 C 8,9 C 4,4 C 46 % 1020,5 hPa 0,0 l/m 2 min 0 min 214 W/m 6,4 km/h (2 Bft) 93,62 %
05.03.2022 16:40 9,9 C 8,9 C 4,4 C 46 % 1020,5 hPa 0,0 l/m 2 min 0 min 207 W/m 12,9 km/h (3 Bft) 94,44 %
05.03.2022 16:42 9,8 C 8,9 C 4,4 C 46 % 1020,5 hPa 0,0 l/m 2 min 0 min 200 W/m 9,7 km/h (2 Bft) 95,74 %
05.03.2022 16:44 9,7 C 8,9 C 4,4 C 46 % 1020,5 hPa 0,0 l/m 2 min 0 min 194 W/m 6,4 km/h (2 Bft) 97,87 %
05.03.2022 16:46 9,6 C 8,9 C 4,4 C 47 % 1020,5 hPa 0,0 l/m 2 min 0 min 189 W/m 6,4 km/h (2 Bft) 100,00 %
05.03.2022 16:48 9,6 C 8,9 C 4,4 C 47 % 1020,6 hPa 0,0 l/m 2 min 0 min 172 W/m 12,9 km/h (3 Bft) 97,83 %
05.03.2022 16:50 9,5 C 8,3 C 4,4 C 47 % 1020,6 hPa 0,0 l/m 0 min 0 min 101 W/m 12,9 km/h (3 Bft) 97,87 %
05.03.2022 16:52 9,4 C 8,3 C 4,4 C 47 % 1020,6 hPa 0,0 l/m 0 min 0 min 67 W/m 6,4 km/h (2 Bft) 100,00 %
05.03.2022 16:54 9,4 C 8,3 C 4,4 C 47 % 1020,6 hPa 0,0 l/m 0 min 0 min 67 W/m 6,4 km/h (2 Bft) 97,87 %
05.03.2022 16:56 9,4 C 8,3 C 4,4 C 47 % 1020,6 hPa 0,0 l/m 0 min 0 min 66 W/m 6,4 km/h (2 Bft) 100,00 %
05.03.2022 16:58 9,3 C 8,3 C 4,4 C 47 % 1020,6 hPa 0,0 l/m 0 min 0 min 65 W/m 6,4 km/h (2 Bft) 100,00 %
05.03.2022 17:00 9,3 C 8,3 C 3,9 C 47 % 1020,6 hPa 0,0 l/m 0 min 0 min 65 W/m 6,4 km/h (2 Bft) 97,83 %
05.03.2022 17:02 9,2 C 8,3 C 3,9 C 47 % 1020,6 hPa 0,0 l/m 0 min 0 min 65 W/m 3,2 km/h (1 Bft) 100,00 %
05.03.2022 17:04 9,2 C 8,3 C 3,9 C 48 % 1020,6 hPa 0,0 l/m 0 min 0 min 64 W/m 3,2 km/h (1 Bft) 100,00 %
05.03.2022 17:06 9,2 C 8,3 C 3,9 C 47 % 1020,5 hPa 0,0 l/m 0 min 0 min 54 W/m 6,4 km/h (2 Bft) 100,00 %
05.03.2022 17:08 9,1 C 8,3 C 3,9 C 48 % 1020,5 hPa 0,0 l/m 0 min 0 min 47 W/m 3,2 km/h (1 Bft) 100,00 %
05.03.2022 17:10 9,1 C 8,3 C 3,9 C 48 % 1020,5 hPa 0,0 l/m 0 min 0 min 47 W/m 3,2 km/h (1 Bft) 100,00 %
05.03.2022 17:12 9,1 C 8,3 C 3,9 C 48 % 1020,5 hPa 0,0 l/m 0 min 0 min 46 W/m 3,2 km/h (1 Bft) 100,00 %
05.03.2022 17:14 9,1 C 8,3 C 3,3 C 49 % 1020,5 hPa 0,0 l/m 0 min 0 min 45 W/m 3,2 km/h (1 Bft) 100,00 %
05.03.2022 17:16 9,0 C 8,3 C 3,9 C 49 % 1020,6 hPa 0,0 l/m 0 min 0 min 44 W/m 6,4 km/h (2 Bft) 100,00 %
05.03.2022 17:18 8,9 C 7,8 C 3,3 C 49 % 1020,6 hPa 0,0 l/m 0 min 0 min 43 W/m 3,2 km/h (1 Bft) 100,00 %
05.03.2022 17:20 8,9 C 7,8 C 3,3 C 49 % 1020,5 hPa 0,0 l/m 0 min 0 min 42 W/m 3,2 km/h (1 Bft) 100,00 %
05.03.2022 17:22 8,8 C 7,8 C 3,3 C 48 % 1020,5 hPa 0,0 l/m 0 min 0 min 41 W/m 6,4 km/h (2 Bft) 97,83 %
05.03.2022 17:24 8,8 C 7,8 C 3,3 C 48 % 1020,6 hPa 0,0 l/m 0 min 0 min 40 W/m 3,2 km/h (1 Bft) 97,87 %
05.03.2022 17:26 8,8 C 7,8 C 3,3 C 48 % 1020,6 hPa 0,0 l/m 0 min 0 min 40 W/m 6,4 km/h (2 Bft) 100,00 %
05.03.2022 17:28 8,8 C 7,8 C 3,3 C 49 % 1020,6 hPa 0,0 l/m 0 min 0 min 39 W/m 0,0 km/h (0 Bft) 100,00 %
05.03.2022 17:30 8,7 C 7,8 C 3,3 C 49 % 1020,6 hPa 0,0 l/m 0 min 0 min 38 W/m 3,2 km/h (1 Bft) 100,00 %
05.03.2022 17:32 8,7 C 7,8 C 3,3 C 49 % 1020,5 hPa 0,0 l/m 0 min 0 min 36 W/m 6,4 km/h (2 Bft) 100,00 %
05.03.2022 17:34 8,7 C 7,8 C 3,3 C 49 % 1020,6 hPa 0,0 l/m 0 min 0 min 35 W/m 3,2 km/h (1 Bft) 100,00 %
05.03.2022 17:36 8,7 C 7,8 C 3,3 C 49 % 1020,5 hPa 0,0 l/m 0 min 0 min 34 W/m 3,2 km/h (1 Bft) 100,00 %
05.03.2022 17:38 8,6 C 7,8 C 3,3 C 50 % 1020,6 hPa 0,0 l/m 0 min 0 min 33 W/m 3,2 km/h (1 Bft) 100,00 %
05.03.2022 17:40 8,6 C 7,8 C 3,3 C 49 % 1020,5 hPa 0,0 l/m 0 min 0 min 32 W/m 3,2 km/h (1 Bft) 100,00 %
05.03.2022 17:42 8,6 C 7,8 C 3,3 C 50 % 1020,5 hPa 0,0 l/m 0 min 0 min 31 W/m 3,2 km/h (1 Bft) 100,00 %
05.03.2022 17:44 8,6 C 7,2 C 3,3 C 50 % 1020,5 hPa 0,0 l/m 0 min 0 min 30 W/m 3,2 km/h (1 Bft) 100,00 %
05.03.2022 17:46 8,5 C 7,2 C 2,8 C 50 % 1020,5 hPa 0,0 l/m 0 min 0 min 28 W/m 3,2 km/h (1 Bft) 100,00 %
05.03.2022 17:48 8,5 C 7,2 C 2,8 C 50 % 1020,5 hPa 0,0 l/m 0 min 0 min 26 W/m 3,2 km/h (1 Bft) 97,87 %
05.03.2022 17:50 8,4 C 7,2 C 2,8 C 51 % 1020,6 hPa 0,0 l/m 0 min 0 min 26 W/m 3,2 km/h (1 Bft) 97,87 %
05.03.2022 17:52 8,4 C 7,2 C 2,8 C 51 % 1020,6 hPa 0,0 l/m 0 min 0 min 25 W/m 3,2 km/h (1 Bft) 100,00 %
05.03.2022 17:54 8,3 C 7,2 C 2,8 C 50 % 1020,5 hPa 0,0 l/m 0 min 0 min 23 W/m 3,2 km/h (1 Bft) 97,87 %
05.03.2022 17:56 8,3 C 6,7 C 2,2 C 51 % 1020,6 hPa 0,0 l/m 0 min 0 min 21 W/m 0,0 km/h (0 Bft) 100,00 %
05.03.2022 17:58 8,3 C 6,7 C 2,2 C 51 % 1020,6 hPa 0,0 l/m 0 min 0 min 21 W/m 3,2 km/h (1 Bft) 97,83 %
05.03.2022 18:00 8,3 C 6,1 C 1,7 C 52 % 1020,6 hPa 0,0 l/m 0 min 0 min 19 W/m 0,0 km/h (0 Bft) 95,74 %
05.03.2022 18:02 8,3 C 6,1 C 1,7 C 52 % 1020,6 hPa 0,0 l/m 0 min 0 min 18 W/m 0,0 km/h (0 Bft) 97,87 %
05.03.2022 18:04 8,2 C 6,1 C 1,7 C 52 % 1020,6 hPa 0,0 l/m 0 min 0 min 17 W/m 0,0 km/h (0 Bft) 97,87 %
05.03.2022 18:08 8,2 C 5,6 C 1,1 C 53 % 1020,6 hPa 0,0 l/m 0 min 0 min 15 W/m 0,0 km/h (0 Bft) 96,81 %
05.03.2022 18:10 8,1 C 5,6 C 1,1 C 53 % 1020,7 hPa 0,0 l/m 0 min 0 min 12 W/m 0,0 km/h (0 Bft) 97,83 %
05.03.2022 18:12 8,1 C 5,6 C 1,1 C 53 % 1020,7 hPa 0,0 l/m 0 min 0 min 11 W/m 0,0 km/h (0 Bft) 97,87 %
05.03.2022 18:14 8,0 C 5,6 C 1,1 C 53 % 1020,7 hPa 0,0 l/m 0 min 0 min 11 W/m 0,0 km/h (0 Bft) 95,74 %
05.03.2022 18:16 7,9 C 5,0 C 0,6 C 53 % 1020,7 hPa 0,0 l/m 0 min 0 min 9 W/m 0,0 km/h (0 Bft) 97,87 %
05.03.2022 18:18 7,9 C 5,0 C 0,6 C 53 % 1020,7 hPa 0,0 l/m 0 min 0 min 7 W/m 0,0 km/h (0 Bft) 95,74 %
05.03.2022 18:20 7,8 C 5,0 C 0,6 C 54 % 1020,7 hPa 0,0 l/m 0 min 0 min 7 W/m 0,0 km/h (0 Bft) 95,74 %
05.03.2022 18:22 7,7 C 5,0 C 0,0 C 54 % 1020,7 hPa 0,0 l/m 0 min 0 min 5 W/m 0,0 km/h (0 Bft) 97,83 %
05.03.2022 18:24 7,7 C 5,0 C 0,0 C 54 % 1020,7 hPa 0,0 l/m 0 min 0 min 5 W/m 0,0 km/h (0 Bft) 97,87 %
05.03.2022 18:26 7,6 C 5,0 C 0,0 C 54 % 1020,6 hPa 0,0 l/m 0 min 0 min 0 W/m 0,0 km/h (0 Bft) 97,87 %
05.03.2022 18:28 7,6 C 4,4 C 0,0 C 54 % 1020,7 hPa 0,0 l/m 0 min 0 min 0 W/m 0,0 km/h (0 Bft) 97,87 %
05.03.2022 18:30 7,4 C 4,4 C 0,0 C 55 % 1020,7 hPa 0,0 l/m 0 min 0 min 0 W/m 0,0 km/h (0 Bft) 95,74 %
05.03.2022 18:32 7,3 C 4,4 C 0,0 C 55 % 1020,7 hPa 0,0 l/m 0 min 0 min 0 W/m 0,0 km/h (0 Bft) 93,62 %
05.03.2022 18:34 7,3 C 4,4 C 0,0 C 56 % 1020,7 hPa 0,0 l/m 0 min 0 min 0 W/m 0,0 km/h (0 Bft) 97,83 %
05.03.2022 18:36 7,2 C 4,4 C -0,6 C 56 % 1020,8 hPa 0,0 l/m 0 min 0 min 0 W/m 0,0 km/h (0 Bft) 93,62 %
05.03.2022 18:38 7,1 C 3,9 C -0,6 C 56 % 1020,7 hPa 0,0 l/m 0 min 0 min 0 W/m 0,0 km/h (0 Bft) 95,74 %
05.03.2022 18:40 7,0 C 3,9 C -0,6 C 56 % 1020,7 hPa 0,0 l/m 0 min 0 min 0 W/m 0,0 km/h (0 Bft) 95,74 %
05.03.2022 18:42 6,9 C 3,9 C -0,6 C 57 % 1020,8 hPa 0,0 l/m 0 min 0 min 0 W/m 0,0 km/h (0 Bft) 95,74 %
05.03.2022 18:44 6,8 C 3,9 C -0,6 C 56 % 1020,8 hPa 0,0 l/m 0 min 0 min 0 W/m 0,0 km/h (0 Bft) 95,65 %
05.03.2022 18:46 6,7 C 3,9 C -0,6 C 58 % 1020,8 hPa 0,0 l/m 0 min 0 min 0 W/m 0,0 km/h (0 Bft) 95,74 %
05.03.2022 18:48 6,6 C 3,9 C -0,6 C 58 % 1020,8 hPa 0,0 l/m 0 min 0 min 0 W/m 0,0 km/h (0 Bft) 95,74 %
05.03.2022 18:50 6,6 C 3,3 C -0,6 C 59 % 1020,8 hPa 0,0 l/m 0 min 0 min 0 W/m 0,0 km/h (0 Bft) 95,74 %
05.03.2022 18:52 6,5 C 3,3 C -1,1 C 59 % 1020,8 hPa 0,0 l/m 0 min 0 min 0 W/m 0,0 km/h (0 Bft) 97,87 %
05.03.2022 18:54 6,4 C 3,3 C -1,1 C 59 % 1020,8 hPa 0,0 l/m 0 min 0 min 0 W/m 0,0 km/h (0 Bft) 95,74 %
05.03.2022 18:56 6,3 C 3,3 C -1,1 C 60 % 1020,9 hPa 0,0 l/m 0 min 0 min 0 W/m 0,0 km/h (0 Bft) 97,83 %
05.03.2022 18:58 6,2 C 3,3 C -1,1 C 60 % 1020,8 hPa 0,0 l/m 0 min 0 min 0 W/m 0,0 km/h (0 Bft) 97,87 %
05.03.2022 19:00 6,1 C 3,3 C -1,1 C 60 % 1020,9 hPa 0,0 l/m 0 min 0 min 0 W/m 0,0 km/h (0 Bft) 97,87 %
05.03.2022 19:02 6,1 C 3,3 C -1,1 C 60 % 1020,9 hPa 0,0 l/m 0 min 0 min 0 W/m 0,0 km/h (0 Bft) 95,74 %
05.03.2022 19:04 5,9 C 3,3 C -1,1 C 61 % 1020,9 hPa 0,0 l/m 0 min 0 min 0 W/m 0,0 km/h (0 Bft) 97,87 %
05.03.2022 19:06 5,8 C 3,3 C -1,1 C 61 % 1020,9 hPa 0,0 l/m 0 min 0 min 0 W/m 0,0 km/h (0 Bft) 97,87 %
05.03.2022 19:08 5,8 C 3,3 C -1,1 C 61 % 1020,9 hPa 0,0 l/m 0 min 0 min 0 W/m 0,0 km/h (0 Bft) 97,83 %
05.03.2022 19:10 5,7 C 2,8 C -1,1 C 61 % 1020,9 hPa 0,0 l/m 0 min 0 min 0 W/m 0,0 km/h (0 Bft) 95,74 %
05.03.2022 19:12 5,6 C 2,8 C -1,1 C 62 % 1020,9 hPa 0,0 l/m 0 min 0 min 0 W/m 0,0 km/h (0 Bft) 97,87 %
05.03.2022 19:14 5,6 C 2,8 C -1,1 C 62 % 1021,0 hPa 0,0 l/m 0 min 0 min 0 W/m 0,0 km/h (0 Bft) 95,74 %
05.03.2022 19:16 5,4 C 2,8 C -1,1 C 62 % 1021,0 hPa 0,0 l/m 0 min 0 min 0 W/m 0,0 km/h (0 Bft) 97,87 %
05.03.2022 19:18 5,4 C 2,8 C -1,1 C 62 % 1021,0 hPa 0,0 l/m 0 min 0 min 0 W/m 0,0 km/h (0 Bft) 97,83 %
05.03.2022 19:20 5,3 C 2,8 C -1,7 C 62 % 1021,0 hPa 0,0 l/m 0 min 0 min 0 W/m 0,0 km/h (0 Bft) 95,74 %
05.03.2022 19:22 5,2 C 2,8 C -1,7 C 63 % 1021,0 hPa 0,0 l/m 0 min 0 min 0 W/m 0,0 km/h (0 Bft) 95,74 %
05.03.2022 19:24 5,1 C 2,8 C -1,7 C 63 % 1021,1 hPa 0,0 l/m 0 min 0 min 0 W/m 0,0 km/h (0 Bft) 95,74 %
05.03.2022 19:26 5,1 C 2,8 C -1,7 C 63 % 1021,1 hPa 0,0 l/m 0 min 0 min 0 W/m 0,0 km/h (0 Bft) 95,74 %
05.03.2022 19:28 5,0 C 2,8 C -1,7 C 63 % 1021,1 hPa 0,0 l/m 0 min 0 min 0 W/m 0,0 km/h (0 Bft) 93,62 %
05.03.2022 19:30 4,9 C 2,8 C -1,7 C 63 % 1021,1 hPa 0,0 l/m 0 min 0 min 0 W/m 0,0 km/h (0 Bft) 95,65 %
05.03.2022 19:32 4,8 C 2,8 C -1,7 C 63 % 1021,1 hPa 0,0 l/m 0 min 0 min 0 W/m 0,0 km/h (0 Bft) 95,74 %
05.03.2022 19:34 4,8 C 2,2 C -1,7 C 63 % 1021,1 hPa 0,0 l/m 0 min 0 min 0 W/m 0,0 km/h (0 Bft) 93,62 %
05.03.2022 19:36 4,7 C 2,2 C -1,7 C 63 % 1021,2 hPa 0,0 l/m 0 min 0 min 0 W/m 0,0 km/h (0 Bft) 95,74 %
05.03.2022 19:38 4,7 C 2,2 C -1,7 C 63 % 1021,2 hPa 0,0 l/m 0 min 0 min 0 W/m 0,0 km/h (0 Bft) 95,74 %
05.03.2022 19:40 4,6 C 2,2 C -1,7 C 63 % 1021,1 hPa 0,0 l/m 0 min 0 min 0 W/m 0,0 km/h (0 Bft) 95,74 %
05.03.2022 19:42 4,5 C 2,2 C -1,7 C 63 % 1021,2 hPa 0,0 l/m 0 min 0 min 0 W/m 0,0 km/h (0 Bft) 95,65 %
05.03.2022 19:44 4,4 C 2,2 C -1,7 C 64 % 1021,2 hPa 0,0 l/m 0 min 0 min 0 W/m 0,0 km/h (0 Bft) 95,74 %
05.03.2022 19:46 4,3 C 2,2 C -1,7 C 65 % 1021,2 hPa 0,0 l/m 0 min 0 min 0 W/m 0,0 km/h (0 Bft) 97,87 %
05.03.2022 19:48 4,3 C 2,2 C -1,7 C 65 % 1021,2 hPa 0,0 l/m 0 min 0 min 0 W/m 0,0 km/h (0 Bft) 97,87 %
05.03.2022 19:50 4,2 C 2,2 C -1,7 C 65 % 1021,2 hPa 0,0 l/m 0 min 0 min 0 W/m 0,0 km/h (0 Bft) 100,00 %
05.03.2022 19:52 4,2 C 2,2 C -1,7 C 65 % 1021,3 hPa 0,0 l/m 0 min 0 min 0 W/m 0,0 km/h (0 Bft) 100,00 %
05.03.2022 19:54 4,1 C 2,2 C -2,2 C 65 % 1021,2 hPa 0,0 l/m 0 min 0 min 0 W/m 0,0 km/h (0 Bft) 97,83 %
05.03.2022 19:56 4,1 C 2,2 C -2,2 C 65 % 1021,2 hPa 0,0 l/m 0 min 0 min 0 W/m 0,0 km/h (0 Bft) 97,87 %
05.03.2022 19:58 4,0 C 2,2 C -2,2 C 66 % 1021,3 hPa 0,0 l/m 0 min 0 min 0 W/m 0,0 km/h (0 Bft) 97,87 %
05.03.2022 20:00 3,9 C 1,7 C -2,2 C 66 % 1021,3 hPa 0,0 l/m 0 min 0 min 0 W/m 0,0 km/h (0 Bft) 97,87 %
05.03.2022 20:02 3,9 C 1,7 C -2,2 C 66 % 1021,2 hPa 0,0 l/m 0 min 0 min 0 W/m 0,0 km/h (0 Bft) 95,74 %
05.03.2022 20:04 3,8 C 1,7 C -2,2 C 66 % 1021,2 hPa 0,0 l/m 0 min 0 min 0 W/m 0,0 km/h (0 Bft) 95,74 %
05.03.2022 20:06 3,8 C 1,7 C -2,2 C 66 % 1021,2 hPa 0,0 l/m 0 min 0 min 0 W/m 0,0 km/h (0 Bft) 97,83 %
05.03.2022 20:08 3,7 C 1,7 C -2,2 C 66 % 1021,3 hPa 0,0 l/m 0 min 0 min 0 W/m 0,0 km/h (0 Bft) 97,87 %
05.03.2022 20:10 3,7 C 1,7 C -2,2 C 67 % 1021,3 hPa 0,0 l/m 0 min 0 min 0 W/m 0,0 km/h (0 Bft) 97,87 %
05.03.2022 20:12 3,6 C 1,7 C -2,2 C 67 % 1021,3 hPa 0,0 l/m 0 min 0 min 0 W/m 0,0 km/h (0 Bft) 97,87 %
05.03.2022 20:14 3,6 C 1,7 C -2,2 C 67 % 1021,3 hPa 0,0 l/m 0 min 0 min 0 W/m 0,0 km/h (0 Bft) 97,87 %
05.03.2022 20:16 3,5 C 1,7 C -2,2 C 67 % 1021,3 hPa 0,0 l/m 0 min 0 min 0 W/m 0,0 km/h (0 Bft) 97,87 %
05.03.2022 20:18 3,4 C 1,7 C -2,2 C 67 % 1021,3 hPa 0,0 l/m 0 min 0 min 0 W/m 0,0 km/h (0 Bft) 97,83 %
05.03.2022 20:20 3,4 C 1,7 C -2,2 C 67 % 1021,3 hPa 0,0 l/m 0 min 0 min 0 W/m 0,0 km/h (0 Bft) 100,00 %
05.03.2022 20:22 3,3 C 1,1 C -2,8 C 67 % 1021,3 hPa 0,0 l/m 0 min 0 min 0 W/m 0,0 km/h (0 Bft) 97,87 %
05.03.2022 20:24 3,3 C 1,1 C -2,2 C 68 % 1021,3 hPa 0,0 l/m 0 min 0 min 0 W/m 0,0 km/h (0 Bft) 100,00 %
05.03.2022 20:26 3,2 C 1,1 C -2,2 C 68 % 1021,3 hPa 0,0 l/m 0 min 0 min 0 W/m 0,0 km/h (0 Bft) 97,87 %
05.03.2022 20:28 3,2 C 1,1 C -2,2 C 68 % 1021,3 hPa 0,0 l/m 0 min 0 min 0 W/m 0,0 km/h (0 Bft) 100,00 %
05.03.2022 20:30 3,2 C 1,1 C -2,2 C 68 % 1021,3 hPa 0,0 l/m 0 min 0 min 0 W/m 0,0 km/h (0 Bft) 100,00 %
05.03.2022 20:32 3,1 C 1,1 C -2,8 C 68 % 1021,3 hPa 0,0 l/m 0 min 0 min 0 W/m 0,0 km/h (0 Bft) 97,87 %
05.03.2022 20:34 3,1 C 1,1 C -2,8 C 68 % 1021,3 hPa 0,0 l/m 0 min 0 min 0 W/m 0,0 km/h (0 Bft) 100,00 %
05.03.2022 20:36 3,0 C 1,1 C -2,8 C 68 % 1021,3 hPa 0,0 l/m 0 min 0 min 0 W/m 0,0 km/h (0 Bft) 100,00 %
05.03.2022 20:38 2,9 C 1,1 C -2,8 C 69 % 1021,3 hPa 0,0 l/m 0 min 0 min 0 W/m 0,0 km/h (0 Bft) 95,74 %
05.03.2022 20:40 2,9 C 1,1 C -2,8 C 69 % 1021,5 hPa 0,0 l/m 0 min 0 min 0 W/m 0,0 km/h (0 Bft) 97,83 %
05.03.2022 20:42 2,9 C 1,1 C -2,8 C 69 % 1021,4 hPa 0,0 l/m 0 min 0 min 0 W/m 0,0 km/h (0 Bft) 97,87 %
05.03.2022 20:44 2,8 C 1,1 C -2,8 C 70 % 1021,5 hPa 0,0 l/m 0 min 0 min 0 W/m 0,0 km/h (0 Bft) 97,44 %
05.03.2022 20:46 2,8 C 1,1 C -2,8 C 70 % 1021,4 hPa 0,0 l/m 0 min 0 min 0 W/m 0,0 km/h (0 Bft) 97,87 %
05.03.2022 20:48 2,7 C 1,1 C -2,8 C 71 % 1021,5 hPa 0,0 l/m 0 min 0 min 0 W/m 0,0 km/h (0 Bft) 97,87 %
05.03.2022 20:50 2,7 C 1,1 C -2,8 C 71 % 1021,5 hPa 0,0 l/m 0 min 0 min 0 W/m 0,0 km/h (0 Bft) 97,87 %
05.03.2022 20:52 2,7 C 1,1 C -2,8 C 71 % 1021,6 hPa 0,0 l/m 0 min 0 min 0 W/m 0,0 km/h (0 Bft) 97,83 %
05.03.2022 20:54 2,6 C 1,1 C -2,8 C 71 % 1021,6 hPa 0,0 l/m 0 min 0 min 0 W/m 6,4 km/h (2 Bft) 97,87 %
05.03.2022 20:56 2,6 C 1,1 C -2,8 C 71 % 1021,6 hPa 0,0 l/m 0 min 0 min 0 W/m 6,4 km/h (2 Bft) 95,74 %
05.03.2022 20:58 2,4 C 1,1 C -2,8 C 71 % 1021,7 hPa 0,0 l/m 0 min 0 min 0 W/m 6,4 km/h (2 Bft) 95,74 %
05.03.2022 21:00 2,4 C 1,1 C -2,8 C 71 % 1021,7 hPa 0,0 l/m 0 min 0 min 0 W/m 3,2 km/h (1 Bft) 97,87 %
05.03.2022 21:02 2,3 C 1,7 C -2,8 C 71 % 1021,7 hPa 0,0 l/m 0 min 0 min 0 W/m 6,4 km/h (2 Bft) 100,00 %
05.03.2022 21:04 2,3 C 1,7 C -2,2 C 72 % 1021,6 hPa 0,0 l/m 0 min 0 min 0 W/m 3,2 km/h (1 Bft) 97,87 %
05.03.2022 21:06 2,3 C 1,7 C -2,2 C 72 % 1021,7 hPa 0,0 l/m 0 min 0 min 0 W/m 3,2 km/h (1 Bft) 100,00 %
05.03.2022 21:08 2,3 C 1,7 C -1,7 C 72 % 1021,7 hPa 0,0 l/m 0 min 0 min 0 W/m 3,2 km/h (1 Bft) 100,00 %
05.03.2022 21:10 2,3 C 1,7 C -1,7 C 72 % 1021,7 hPa 0,0 l/m 0 min 0 min 0 W/m 3,2 km/h (1 Bft) 100,00 %
05.03.2022 21:12 2,3 C 2,2 C -1,7 C 72 % 1021,7 hPa 0,0 l/m 0 min 0 min 0 W/m 3,2 km/h (1 Bft) 100,00 %
05.03.2022 21:14 2,4 C 2,2 C -1,7 C 71 % 1021,8 hPa 0,0 l/m 0 min 0 min 0 W/m 6,4 km/h (2 Bft) 97,87 %
05.03.2022 21:16 2,4 C 1,7 C -1,7 C 71 % 1021,8 hPa 0,0 l/m 0 min 0 min 0 W/m 0,0 km/h (0 Bft) 100,00 %
05.03.2022 21:18 2,4 C 1,7 C -2,2 C 71 % 1021,8 hPa 0,0 l/m 0 min 0 min 0 W/m 3,2 km/h (1 Bft) 97,87 %
05.03.2022 21:20 2,4 C 1,7 C -2,2 C 71 % 1021,9 hPa 0,0 l/m 0 min 0 min 0 W/m 3,2 km/h (1 Bft) 100,00 %
05.03.2022 21:22 2,4 C 1,7 C -2,2 C 71 % 1021,9 hPa 0,0 l/m 0 min 0 min 0 W/m 3,2 km/h (1 Bft) 100,00 %
05.03.2022 21:24 2,4 C 1,7 C -2,2 C 71 % 1021,9 hPa 0,0 l/m 0 min 0 min 0 W/m 3,2 km/h (1 Bft) 97,87 %
05.03.2022 21:26 2,4 C 1,7 C -2,2 C 71 % 1021,9 hPa 0,0 l/m 0 min 0 min 0 W/m 6,4 km/h (2 Bft) 95,65 %
05.03.2022 21:28 2,4 C 1,7 C -2,2 C 71 % 1021,9 hPa 0,0 l/m 0 min 0 min 0 W/m 3,2 km/h (1 Bft) 95,74 %
05.03.2022 21:30 2,4 C 1,7 C -2,2 C 71 % 1021,9 hPa 0,0 l/m 0 min 0 min 0 W/m 3,2 km/h (1 Bft) 97,87 %
05.03.2022 21:32 2,4 C 1,7 C -2,2 C 70 % 1021,9 hPa 0,0 l/m 0 min 0 min 0 W/m 3,2 km/h (1 Bft) 97,87 %
05.03.2022 21:34 2,4 C 1,7 C -2,2 C 70 % 1021,9 hPa 0,0 l/m 0 min 0 min 0 W/m 3,2 km/h (1 Bft) 97,87 %
05.03.2022 21:36 2,4 C 1,7 C -2,2 C 70 % 1021,9 hPa 0,0 l/m 0 min 0 min 0 W/m 0,0 km/h (0 Bft) 97,87 %
05.03.2022 21:38 2,4 C 1,1 C -2,2 C 70 % 1022,0 hPa 0,0 l/m 0 min 0 min 0 W/m 0,0 km/h (0 Bft) 97,83 %
05.03.2022 21:40 2,4 C 1,1 C -2,2 C 70 % 1022,0 hPa 0,0 l/m 0 min 0 min 0 W/m 0,0 km/h (0 Bft) 97,87 %
05.03.2022 21:42 2,4 C 1,7 C -2,2 C 70 % 1022,0 hPa 0,0 l/m 0 min 0 min 0 W/m 3,2 km/h (1 Bft) 97,87 %
05.03.2022 21:44 2,4 C 1,1 C -2,2 C 70 % 1022,0 hPa 0,0 l/m 0 min 0 min 0 W/m 6,4 km/h (2 Bft) 95,74 %
05.03.2022 21:46 2,4 C 1,7 C -2,2 C 70 % 1022,0 hPa 0,0 l/m 0 min 0 min 0 W/m 3,2 km/h (1 Bft) 97,87 %
05.03.2022 21:48 2,4 C 1,7 C -2,2 C 70 % 1022,0 hPa 0,0 l/m 0 min 0 min 0 W/m 3,2 km/h (1 Bft) 97,87 %
05.03.2022 21:50 2,4 C 1,7 C -2,2 C 69 % 1022,1 hPa 0,0 l/m 0 min 0 min 0 W/m 6,4 km/h (2 Bft) 97,83 %
05.03.2022 21:52 2,4 C 1,7 C -2,2 C 69 % 1022,1 hPa 0,0 l/m 0 min 0 min 0 W/m 3,2 km/h (1 Bft) 100,00 %
05.03.2022 21:54 2,4 C 1,7 C -2,2 C 69 % 1022,1 hPa 0,0 l/m 0 min 0 min 0 W/m 3,2 km/h (1 Bft) 100,00 %
05.03.2022 21:56 2,4 C 1,7 C -2,2 C 69 % 1022,1 hPa 0,0 l/m 0 min 0 min 0 W/m 3,2 km/h (1 Bft) 100,00 %
05.03.2022 21:58 2,4 C 1,7 C -2,2 C 69 % 1022,1 hPa 0,0 l/m 0 min 0 min 0 W/m 6,4 km/h (2 Bft) 97,87 %
05.03.2022 22:00 2,4 C 1,7 C -2,2 C 69 % 1022,2 hPa 0,0 l/m 0 min 0 min 0 W/m 3,2 km/h (1 Bft) 100,00 %
05.03.2022 22:02 2,4 C 1,7 C -2,2 C 69 % 1022,2 hPa 0,0 l/m 0 min 0 min 0 W/m 0,0 km/h (0 Bft) 100,00 %
05.03.2022 22:04 2,4 C 1,1 C -2,2 C 69 % 1022,2 hPa 0,0 l/m 0 min 0 min 0 W/m 0,0 km/h (0 Bft) 97,87 %
05.03.2022 22:06 2,4 C 1,1 C -2,2 C 69 % 1022,2 hPa 0,0 l/m 0 min 0 min 0 W/m 3,2 km/h (1 Bft) 100,00 %
05.03.2022 22:08 2,4 C 1,1 C -2,8 C 69 % 1022,2 hPa 0,0 l/m 0 min 0 min 0 W/m 3,2 km/h (1 Bft) 97,87 %
05.03.2022 22:10 2,4 C 1,1 C -2,8 C 69 % 1022,2 hPa 0,0 l/m 0 min 0 min 0 W/m 3,2 km/h (1 Bft) 97,87 %
05.03.2022 22:12 2,4 C 1,1 C -2,8 C 70 % 1022,3 hPa 0,0 l/m 0 min 0 min 0 W/m 3,2 km/h (1 Bft) 97,83 %
05.03.2022 22:14 2,3 C 1,1 C -2,8 C 70 % 1022,3 hPa 0,0 l/m 0 min 0 min 0 W/m 3,2 km/h (1 Bft) 97,87 %
05.03.2022 22:16 2,3 C 0,6 C -2,8 C 70 % 1022,3 hPa 0,0 l/m 0 min 0 min 0 W/m 3,2 km/h (1 Bft) 97,87 %
05.03.2022 22:18 2,3 C 0,6 C -2,8 C 70 % 1022,2 hPa 0,0 l/m 0 min 0 min 0 W/m 3,2 km/h (1 Bft) 97,87 %
05.03.2022 22:20 2,2 C 0,6 C -2,8 C 70 % 1022,2 hPa 0,0 l/m 0 min 0 min 0 W/m 0,0 km/h (0 Bft) 95,74 %
05.03.2022 22:22 2,2 C 0,6 C -2,8 C 70 % 1022,2 hPa 0,0 l/m 0 min 0 min 0 W/m 0,0 km/h (0 Bft) 97,87 %
05.03.2022 22:24 2,2 C 0,6 C -2,8 C 70 % 1022,2 hPa 0,0 l/m 0 min 0 min 0 W/m 0,0 km/h (0 Bft) 97,83 %
05.03.2022 22:26 2,2 C 0,6 C -2,8 C 70 % 1022,2 hPa 0,0 l/m 0 min 0 min 0 W/m 3,2 km/h (1 Bft) 97,87 %
05.03.2022 22:28 2,1 C 0,6 C -2,8 C 70 % 1022,3 hPa 0,0 l/m 0 min 0 min 0 W/m 0,0 km/h (0 Bft) 100,00 %
05.03.2022 22:30 2,1 C 0,6 C -2,8 C 71 % 1022,3 hPa 0,0 l/m 0 min 0 min 0 W/m 0,0 km/h (0 Bft) 97,87 %
05.03.2022 22:32 2,1 C 0,6 C -3,3 C 71 % 1022,2 hPa 0,0 l/m 0 min 0 min 0 W/m 0,0 km/h (0 Bft) 95,74 %
05.03.2022 22:34 2,1 C 0,6 C -3,3 C 71 % 1022,3 hPa 0,0 l/m 0 min 0 min 0 W/m 3,2 km/h (1 Bft) 100,00 %
05.03.2022 22:36 2,0 C 0,6 C -3,3 C 71 % 1022,2 hPa 0,0 l/m 0 min 0 min 0 W/m 3,2 km/h (1 Bft) 97,87 %
05.03.2022 22:38 1,9 C 0,6 C -3,3 C 71 % 1022,3 hPa 0,0 l/m 0 min 0 min 0 W/m 3,2 km/h (1 Bft) 97,87 %
05.03.2022 22:40 1,9 C 0,6 C -3,3 C 71 % 1022,3 hPa 0,0 l/m 0 min 0 min 0 W/m 3,2 km/h (1 Bft) 100,00 %
05.03.2022 22:42 1,9 C 0,6 C -3,3 C 71 % 1022,4 hPa 0,0 l/m 0 min 0 min 0 W/m 3,2 km/h (1 Bft) 100,00 %
05.03.2022 22:44 1,8 C 0,6 C -3,3 C 71 % 1022,4 hPa 0,0 l/m 0 min 0 min 0 W/m 3,2 km/h (1 Bft) 100,00 %
05.03.2022 22:46 1,8 C 0,6 C -3,3 C 71 % 1022,4 hPa 0,0 l/m 0 min 0 min 0 W/m 0,0 km/h (0 Bft) 100,00 %
05.03.2022 22:48 1,8 C 0,6 C -3,3 C 71 % 1022,4 hPa 0,0 l/m 0 min 0 min 0 W/m 3,2 km/h (1 Bft) 100,00 %
05.03.2022 22:50 1,8 C 0,0 C -3,3 C 71 % 1022,4 hPa 0,0 l/m 0 min 0 min 0 W/m 3,2 km/h (1 Bft) 100,00 %
05.03.2022 22:52 1,7 C 0,0 C -3,3 C 72 % 1022,5 hPa 0,0 l/m 0 min 0 min 0 W/m 0,0 km/h (0 Bft) 100,00 %
05.03.2022 22:54 1,7 C 0,0 C -3,3 C 72 % 1022,5 hPa 0,0 l/m 0 min 0 min 0 W/m 3,2 km/h (1 Bft) 100,00 %
05.03.2022 22:56 1,7 C 0,0 C -3,3 C 72 % 1022,5 hPa 0,0 l/m 0 min 0 min 0 W/m 3,2 km/h (1 Bft) 100,00 %
05.03.2022 22:58 1,7 C 0,0 C -3,3 C 72 % 1022,5 hPa 0,0 l/m 0 min 0 min 0 W/m 0,0 km/h (0 Bft) 97,83 %
05.03.2022 23:00 1,6 C 0,0 C -3,3 C 72 % 1022,5 hPa 0,0 l/m 0 min 0 min 0 W/m 3,2 km/h (1 Bft) 97,87 %
05.03.2022 23:02 1,6 C 0,0 C -3,9 C 72 % 1022,5 hPa 0,0 l/m 0 min 0 min 0 W/m 0,0 km/h (0 Bft) 97,87 %
05.03.2022 23:04 1,6 C 0,0 C -3,9 C 72 % 1022,5 hPa 0,0 l/m 0 min 0 min 0 W/m 0,0 km/h (0 Bft) 97,87 %
05.03.2022 23:06 1,6 C 0,0 C -3,9 C 72 % 1022,6 hPa 0,0 l/m 0 min 0 min 0 W/m 0,0 km/h (0 Bft) 95,74 %
05.03.2022 23:08 1,5 C 0,0 C -3,9 C 72 % 1022,6 hPa 0,0 l/m 0 min 0 min 0 W/m 0,0 km/h (0 Bft) 95,74 %
05.03.2022 23:10 1,4 C 0,0 C -3,9 C 72 % 1022,6 hPa 0,0 l/m 0 min 0 min 0 W/m 0,0 km/h (0 Bft) 95,65 %
05.03.2022 23:12 1,4 C 0,0 C -3,9 C 73 % 1022,6 hPa 0,0 l/m 0 min 0 min 0 W/m 0,0 km/h (0 Bft) 95,74 %
05.03.2022 23:14 1,4 C 0,0 C -3,9 C 72 % 1022,6 hPa 0,0 l/m 0 min 0 min 0 W/m 0,0 km/h (0 Bft) 95,74 %
05.03.2022 23:16 1,3 C -0,6 C -3,9 C 73 % 1022,6 hPa 0,0 l/m 0 min 0 min 0 W/m 0,0 km/h (0 Bft) 91,49 %
05.03.2022 23:18 1,3 C -0,6 C -3,9 C 73 % 1022,6 hPa 0,0 l/m 0 min 0 min 0 W/m 0,0 km/h (0 Bft) 93,62 %
05.03.2022 23:20 1,3 C -0,6 C -3,9 C 73 % 1022,7 hPa 0,0 l/m 0 min 0 min 0 W/m 0,0 km/h (0 Bft) 93,62 %
05.03.2022 23:22 1,2 C -0,6 C -3,9 C 73 % 1022,6 hPa 0,0 l/m 0 min 0 min 0 W/m 0,0 km/h (0 Bft) 95,65 %
05.03.2022 23:24 1,2 C -0,6 C -3,9 C 73 % 1022,6 hPa 0,0 l/m 0 min 0 min 0 W/m 0,0 km/h (0 Bft) 97,87 %
05.03.2022 23:26 1,2 C -0,6 C -3,9 C 73 % 1022,7 hPa 0,0 l/m 0 min 0 min 0 W/m 0,0 km/h (0 Bft) 97,87 %
05.03.2022 23:28 1,1 C -0,6 C -3,9 C 73 % 1022,7 hPa 0,0 l/m 0 min 0 min 0 W/m 0,0 km/h (0 Bft) 97,87 %
05.03.2022 23:30 1,1 C -0,6 C -4,4 C 73 % 1022,7 hPa 0,0 l/m 0 min 0 min 0 W/m 0,0 km/h (0 Bft) 97,87 %
05.03.2022 23:32 1,1 C -0,6 C -4,4 C 73 % 1022,7 hPa 0,0 l/m 0 min 0 min 0 W/m 0,0 km/h (0 Bft) 95,74 %
05.03.2022 23:34 1,0 C -0,6 C -4,4 C 73 % 1022,7 hPa 0,0 l/m 0 min 0 min 0 W/m 0,0 km/h (0 Bft) 93,48 %
05.03.2022 23:36 0,9 C -0,6 C -4,4 C 74 % 1022,7 hPa 0,0 l/m 0 min 0 min 0 W/m 0,0 km/h (0 Bft) 97,87 %
05.03.2022 23:38 0,9 C -0,6 C -4,4 C 74 % 1022,7 hPa 0,0 l/m 0 min 0 min 0 W/m 0,0 km/h (0 Bft) 97,87 %
05.03.2022 23:40 0,9 C -1,1 C -4,4 C 74 % 1022,8 hPa 0,0 l/m 0 min 0 min 0 W/m 0,0 km/h (0 Bft) 95,74 %
05.03.2022 23:42 0,8 C -1,1 C -4,4 C 74 % 1022,7 hPa 0,0 l/m 0 min 0 min 0 W/m 0,0 km/h (0 Bft) 95,74 %
05.03.2022 23:44 0,8 C -1,1 C -4,4 C 74 % 1022,8 hPa 0,0 l/m 0 min 0 min 0 W/m 0,0 km/h (0 Bft) 95,65 %
05.03.2022 23:46 0,7 C -1,1 C -4,4 C 74 % 1022,8 hPa 0,0 l/m 0 min 0 min 0 W/m 0,0 km/h (0 Bft) 95,74 %
05.03.2022 23:48 0,7 C -1,1 C -4,4 C 73 % 1022,8 hPa 0,0 l/m 0 min 0 min 0 W/m 0,0 km/h (0 Bft) 93,62 %
05.03.2022 23:50 0,6 C -1,1 C -4,4 C 74 % 1022,8 hPa 0,0 l/m 0 min 0 min 0 W/m 0,0 km/h (0 Bft) 93,62 %
05.03.2022 23:52 0,6 C -1,1 C -4,4 C 74 % 1022,8 hPa 0,0 l/m 0 min 0 min 0 W/m 0,0 km/h (0 Bft) 93,62 %
05.03.2022 23:54 0,6 C -1,1 C -4,4 C 74 % 1022,8 hPa 0,0 l/m 0 min 0 min 0 W/m 0,0 km/h (0 Bft) 95,74 %
05.03.2022 23:56 0,6 C -1,1 C -4,4 C 74 % 1022,8 hPa 0,0 l/m 0 min 0 min 0 W/m 0,0 km/h (0 Bft) 95,65 %
05.03.2022 23:58 0,6 C -1,1 C -4,4 C 74 % 1022,8 hPa 0,0 l/m 0 min 0 min 0 W/m 0,0 km/h (0 Bft) 95,74 %
_ Min-Zeit 07:18 00:58 01:22 15:00 04:16 - - - - 01:32 00:02
Minimum _ -0,8 C -1,7 C -5,0 C 46 % 1020,4 hPa - - - - 0,0 km/h (0 Bft) 9,09 %
_ Max-Zeit 14:40 13:54 11:28 01:34 23:40 00:00 11:44 00:00 12:58 09:28 00:00
Maximum _ 11,0 C 22,2 C 8,9 C 89 % 1022,8 hPa 0,0 l/m 4 min 0 min 598 W/m 29,0 km/h
S (5 Bft)
100,00 %
Durchschnitt _ 3,8 C 4,5 C -0,5 C 71 % 1021,2 hPa #0,0 l/m #7:34 h #0 min. 304 W/m 8,4 km/h (2 Bft) 96,94 %
© 2022 W. Hausmann